Wetterdaten: Donnerstag, 17.11.2022
Datum Zeit Temp. Aussen Temp. o. S. Temp +5cm Feuchte Auss Luftdruck Regen Sonnenschein Regendauer Solar Windben Empfang
17.11.2022 00:00 10,4 C 9,4 C 5,6 C 93 % 993,6 hPa 0,2 l/m 0 min 2 min 0 W/m 16,1 km/h (3 Bft) 95,74 %
17.11.2022 00:02 10,3 C 9,4 C 6,1 C 93 % 993,6 hPa 0,0 l/m 0 min 2 min 0 W/m 12,9 km/h (3 Bft) 94,12 %
17.11.2022 00:04 10,3 C 9,4 C 6,1 C 93 % 993,5 hPa 0,0 l/m 0 min 2 min 0 W/m 12,9 km/h (3 Bft) 93,62 %
17.11.2022 00:08 10,3 C 9,4 C 6,1 C 93 % 993,5 hPa 0,0 l/m 0 min 4 min 0 W/m 19,3 km/h (3 Bft) 96,77 %
17.11.2022 00:10 10,3 C 9,4 C 6,1 C 94 % 993,4 hPa 0,0 l/m 0 min 2 min 0 W/m 25,7 km/h (4 Bft) 95,74 %
17.11.2022 00:12 10,3 C 9,4 C 6,1 C 94 % 993,4 hPa 0,0 l/m 0 min 2 min 0 W/m 25,7 km/h (4 Bft) 95,74 %
17.11.2022 00:14 10,3 C 9,4 C 6,1 C 94 % 993,4 hPa 0,0 l/m 0 min 2 min 0 W/m 22,5 km/h (4 Bft) 95,74 %
17.11.2022 00:16 10,3 C 9,4 C 6,1 C 94 % 993,3 hPa 0,2 l/m 0 min 2 min 0 W/m 22,5 km/h (4 Bft) 95,74 %
17.11.2022 00:18 10,3 C 9,4 C 6,1 C 94 % 993,2 hPa 0,0 l/m 0 min 2 min 0 W/m 25,7 km/h (4 Bft) 95,74 %
17.11.2022 00:20 10,3 C 9,4 C 6,1 C 94 % 993,2 hPa 0,0 l/m 0 min 2 min 0 W/m 25,7 km/h (4 Bft) 93,48 %
17.11.2022 00:22 10,3 C 9,4 C 6,1 C 94 % 993,2 hPa 0,0 l/m 0 min 2 min 0 W/m 19,3 km/h (3 Bft) 95,74 %
17.11.2022 00:24 10,3 C 9,4 C 6,1 C 94 % 993,1 hPa 0,0 l/m 0 min 2 min 0 W/m 22,5 km/h (4 Bft) 93,62 %
17.11.2022 00:26 10,3 C 9,4 C 6,1 C 94 % 993,0 hPa 0,0 l/m 0 min 2 min 0 W/m 25,7 km/h (4 Bft) 93,62 %
17.11.2022 00:28 10,3 C 9,4 C 6,1 C 94 % 992,9 hPa 0,2 l/m 0 min 2 min 0 W/m 16,1 km/h (3 Bft) 95,74 %
17.11.2022 00:30 10,2 C 9,4 C 6,1 C 95 % 992,9 hPa 0,0 l/m 0 min 2 min 0 W/m 19,3 km/h (3 Bft) 95,65 %
17.11.2022 00:32 10,2 C 9,4 C 6,1 C 95 % 992,9 hPa 0,2 l/m 0 min 2 min 0 W/m 16,1 km/h (3 Bft) 93,62 %
17.11.2022 00:34 10,2 C 9,4 C 6,1 C 95 % 992,8 hPa 0,0 l/m 0 min 2 min 0 W/m 25,7 km/h (4 Bft) 97,87 %
17.11.2022 00:36 10,2 C 9,4 C 6,1 C 95 % 992,7 hPa 0,0 l/m 0 min 2 min 0 W/m 19,3 km/h (3 Bft) 95,74 %
17.11.2022 00:38 10,2 C 9,4 C 6,1 C 95 % 992,6 hPa 0,2 l/m 0 min 2 min 0 W/m 25,7 km/h (4 Bft) 91,49 %
17.11.2022 00:40 10,2 C 8,9 C 6,1 C 95 % 992,5 hPa 0,0 l/m 0 min 2 min 0 W/m 29,0 km/h (5 Bft) 95,74 %
17.11.2022 00:42 10,2 C 8,9 C 6,1 C 95 % 992,3 hPa 0,2 l/m 0 min 2 min 0 W/m 22,5 km/h (4 Bft) 95,65 %
17.11.2022 00:44 10,2 C 8,9 C 6,1 C 95 % 992,3 hPa 0,0 l/m 0 min 2 min 0 W/m 22,5 km/h (4 Bft) 95,74 %
17.11.2022 00:46 10,2 C 8,9 C 6,1 C 95 % 992,2 hPa 0,0 l/m 0 min 2 min 0 W/m 29,0 km/h (5 Bft) 91,49 %
17.11.2022 00:48 10,2 C 8,9 C 6,1 C 95 % 992,1 hPa 0,0 l/m 0 min 2 min 0 W/m 22,5 km/h (4 Bft) 97,87 %
17.11.2022 00:50 10,2 C 8,9 C 6,1 C 95 % 991,9 hPa 0,0 l/m 0 min 2 min 0 W/m 29,0 km/h (5 Bft) 95,74 %
17.11.2022 00:52 10,2 C 9,4 C 6,1 C 95 % 991,9 hPa 0,0 l/m 0 min 2 min 0 W/m 25,7 km/h (4 Bft) 95,74 %
17.11.2022 00:54 10,2 C 9,4 C 6,1 C 95 % 991,8 hPa 0,0 l/m 0 min 2 min 0 W/m 19,3 km/h (3 Bft) 97,83 %
17.11.2022 00:56 10,2 C 8,9 C 6,1 C 95 % 991,7 hPa 0,0 l/m 0 min 0 min 0 W/m 29,0 km/h (5 Bft) 95,74 %
17.11.2022 00:58 10,2 C 8,9 C 6,1 C 95 % 991,6 hPa 0,0 l/m 0 min 0 min 0 W/m 19,3 km/h (3 Bft) 97,87 %
17.11.2022 01:00 10,2 C 9,4 C 6,1 C 95 % 991,6 hPa 0,0 l/m 0 min 0 min 0 W/m 29,0 km/h (5 Bft) 97,87 %
17.11.2022 01:02 10,2 C 9,4 C 6,1 C 95 % 991,6 hPa 0,0 l/m 0 min 0 min 0 W/m 19,3 km/h (3 Bft) 95,74 %
17.11.2022 01:04 10,1 C 9,4 C 6,1 C 96 % 991,6 hPa 0,0 l/m 0 min 0 min 0 W/m 16,1 km/h (3 Bft) 93,75 %
17.11.2022 01:06 10,1 C 9,4 C 6,1 C 96 % 991,4 hPa 0,0 l/m 0 min 0 min 0 W/m 41,8 km/h (6 Bft) 97,83 %
17.11.2022 01:08 10,2 C 9,4 C 6,1 C 96 % 991,4 hPa 0,0 l/m 0 min 2 min 0 W/m 22,5 km/h (4 Bft) 97,87 %
17.11.2022 01:10 10,2 C 9,4 C 6,1 C 96 % 991,3 hPa 0,0 l/m 0 min 2 min 0 W/m 22,5 km/h (4 Bft) 97,87 %
17.11.2022 01:12 10,2 C 9,4 C 6,1 C 96 % 991,2 hPa 0,0 l/m 0 min 0 min 0 W/m 29,0 km/h (5 Bft) 95,74 %
17.11.2022 01:14 10,2 C 9,4 C 6,1 C 96 % 991,2 hPa 0,0 l/m 0 min 0 min 0 W/m 25,7 km/h (4 Bft) 97,87 %
17.11.2022 01:16 10,2 C 9,4 C 6,1 C 96 % 991,2 hPa 0,0 l/m 0 min 0 min 0 W/m 29,0 km/h (5 Bft) 100,00 %
17.11.2022 01:18 10,2 C 9,4 C 6,1 C 96 % 991,1 hPa 0,0 l/m 0 min 0 min 0 W/m 22,5 km/h (4 Bft) 97,83 %
17.11.2022 01:20 10,2 C 9,4 C 6,1 C 96 % 991,1 hPa 0,2 l/m 0 min 0 min 0 W/m 22,5 km/h (4 Bft) 100,00 %
17.11.2022 01:22 10,2 C 9,4 C 6,1 C 96 % 991,1 hPa 0,0 l/m 0 min 0 min 0 W/m 25,7 km/h (4 Bft) 100,00 %
17.11.2022 01:24 10,2 C 9,4 C 6,1 C 96 % 991,1 hPa 0,0 l/m 0 min 0 min 0 W/m 19,3 km/h (3 Bft) 100,00 %
17.11.2022 01:26 10,2 C 9,4 C 6,1 C 96 % 991,0 hPa 0,0 l/m 0 min 0 min 0 W/m 25,7 km/h (4 Bft) 100,00 %
17.11.2022 01:28 10,2 C 9,4 C 6,1 C 96 % 991,0 hPa 0,0 l/m 0 min 0 min 0 W/m 19,3 km/h (3 Bft) 100,00 %
17.11.2022 01:30 10,2 C 9,4 C 6,1 C 96 % 990,9 hPa 0,0 l/m 0 min 0 min 0 W/m 22,5 km/h (4 Bft) 100,00 %
17.11.2022 01:32 10,2 C 9,4 C 6,1 C 96 % 990,8 hPa 0,0 l/m 0 min 2 min 0 W/m 22,5 km/h (4 Bft) 100,00 %
17.11.2022 01:34 10,2 C 9,4 C 6,1 C 96 % 990,7 hPa 0,0 l/m 0 min 2 min 0 W/m 16,1 km/h (3 Bft) 97,87 %
17.11.2022 01:36 10,3 C 9,4 C 6,1 C 96 % 990,6 hPa 0,2 l/m 0 min 2 min 0 W/m 29,0 km/h (5 Bft) 100,00 %
17.11.2022 01:38 10,3 C 9,4 C 6,1 C 96 % 990,7 hPa 0,0 l/m 0 min 2 min 0 W/m 29,0 km/h (5 Bft) 100,00 %
17.11.2022 01:40 10,3 C 9,4 C 6,1 C 96 % 990,6 hPa 0,0 l/m 0 min 2 min 0 W/m 25,7 km/h (4 Bft) 100,00 %
17.11.2022 01:42 10,3 C 9,4 C 6,1 C 96 % 990,6 hPa 0,2 l/m 0 min 2 min 0 W/m 32,2 km/h (5 Bft) 97,83 %
17.11.2022 01:44 10,3 C 9,4 C 6,1 C 96 % 990,5 hPa 0,0 l/m 0 min 2 min 0 W/m 25,7 km/h (4 Bft) 97,87 %
17.11.2022 01:46 10,3 C 9,4 C 6,1 C 96 % 990,4 hPa 0,0 l/m 0 min 2 min 0 W/m 25,7 km/h (4 Bft) 100,00 %
17.11.2022 01:48 10,3 C 9,4 C 6,1 C 96 % 990,4 hPa 0,0 l/m 0 min 2 min 0 W/m 35,4 km/h (5 Bft) 97,87 %
17.11.2022 01:50 10,3 C 9,4 C 6,1 C 96 % 990,3 hPa 0,0 l/m 0 min 2 min 0 W/m 25,7 km/h (4 Bft) 100,00 %
17.11.2022 01:52 10,3 C 9,4 C 6,1 C 96 % 990,3 hPa 0,2 l/m 0 min 2 min 0 W/m 29,0 km/h (5 Bft) 100,00 %
17.11.2022 01:54 10,3 C 9,4 C 6,1 C 96 % 990,2 hPa 0,0 l/m 0 min 2 min 0 W/m 25,7 km/h (4 Bft) 97,83 %
17.11.2022 01:56 10,3 C 8,9 C 6,1 C 96 % 990,3 hPa 0,2 l/m 0 min 2 min 0 W/m 32,2 km/h (5 Bft) 97,87 %
17.11.2022 01:58 10,3 C 8,9 C 6,1 C 96 % 990,3 hPa 0,2 l/m 0 min 2 min 0 W/m 22,5 km/h (4 Bft) 97,87 %
17.11.2022 02:00 10,3 C 8,9 C 6,1 C 96 % 990,3 hPa 0,0 l/m 0 min 2 min 0 W/m 35,4 km/h (5 Bft) 95,74 %
17.11.2022 02:02 10,3 C 8,9 C 6,1 C 96 % 990,2 hPa 0,0 l/m 0 min 2 min 0 W/m 25,7 km/h (4 Bft) 97,87 %
17.11.2022 02:04 10,3 C 8,9 C 6,1 C 96 % 990,3 hPa 0,0 l/m 0 min 2 min 0 W/m 35,4 km/h (5 Bft) 95,74 %
17.11.2022 02:09 10,3 C 8,9 C 6,1 C 96 % 990,0 hPa 0,2 l/m 0 min 5 min 0 W/m 35,4 km/h (5 Bft) 98,48 %
17.11.2022 02:10 10,3 C 8,9 C 6,1 C 96 % 990,0 hPa 0,2 l/m 0 min 1 min 0 W/m 25,7 km/h (4 Bft) 100,00 %
17.11.2022 02:14 10,3 C 8,9 C 6,1 C 96 % 990,0 hPa 0,2 l/m 0 min 4 min 0 W/m 19,3 km/h (3 Bft) 100,00 %
17.11.2022 02:16 10,3 C 8,9 C 6,1 C 96 % 989,8 hPa 0,2 l/m 0 min 2 min 0 W/m 25,7 km/h (4 Bft) 97,87 %
17.11.2022 02:18 10,2 C 8,9 C 6,1 C 96 % 989,9 hPa 0,2 l/m 0 min 2 min 0 W/m 32,2 km/h (5 Bft) 96,88 %
17.11.2022 02:20 10,2 C 8,9 C 6,1 C 96 % 989,9 hPa 0,0 l/m 0 min 2 min 0 W/m 25,7 km/h (4 Bft) 100,00 %
17.11.2022 02:22 10,2 C 8,9 C 6,1 C 96 % 989,9 hPa 0,2 l/m 0 min 2 min 0 W/m 25,7 km/h (4 Bft) 98,15 %
17.11.2022 02:24 10,2 C 8,9 C 6,1 C 96 % 989,8 hPa 0,0 l/m 0 min 2 min 0 W/m 29,0 km/h (5 Bft) 95,74 %
17.11.2022 02:26 10,2 C 8,9 C 6,1 C 96 % 989,8 hPa 0,0 l/m 0 min 2 min 0 W/m 22,5 km/h (4 Bft) 100,00 %
17.11.2022 02:28 10,2 C 8,9 C 6,1 C 96 % 989,7 hPa 0,0 l/m 0 min 2 min 0 W/m 48,3 km/h (6 Bft) 100,00 %
17.11.2022 02:30 10,2 C 8,9 C 6,1 C 96 % 989,7 hPa 0,2 l/m 0 min 2 min 0 W/m 35,4 km/h (5 Bft) 100,00 %
17.11.2022 02:32 10,2 C 8,9 C 6,7 C 96 % 989,7 hPa 0,0 l/m 0 min 2 min 0 W/m 25,7 km/h (4 Bft) 100,00 %
17.11.2022 02:34 10,2 C 8,9 C 6,7 C 96 % 989,6 hPa 0,0 l/m 0 min 2 min 0 W/m 29,0 km/h (5 Bft) 97,87 %
17.11.2022 02:36 10,2 C 8,9 C 6,7 C 96 % 989,6 hPa 0,0 l/m 0 min 2 min 0 W/m 29,0 km/h (5 Bft) 100,00 %
17.11.2022 02:38 10,2 C 8,9 C 6,7 C 96 % 989,5 hPa 0,0 l/m 0 min 2 min 0 W/m 25,7 km/h (4 Bft) 100,00 %
17.11.2022 02:40 10,2 C 8,9 C 6,7 C 96 % 989,5 hPa 0,0 l/m 0 min 0 min 0 W/m 38,6 km/h (5 Bft) 100,00 %
17.11.2022 02:42 10,2 C 8,9 C 6,7 C 96 % 989,4 hPa 0,0 l/m 0 min 0 min 0 W/m 29,0 km/h (5 Bft) 100,00 %
17.11.2022 02:44 10,2 C 8,9 C 6,7 C 96 % 989,3 hPa 0,0 l/m 0 min 0 min 0 W/m 22,5 km/h (4 Bft) 100,00 %
17.11.2022 02:46 10,2 C 8,9 C 6,7 C 96 % 989,2 hPa 0,0 l/m 0 min 0 min 0 W/m 35,4 km/h (5 Bft) 95,74 %
17.11.2022 02:48 10,2 C 8,9 C 6,7 C 96 % 989,2 hPa 0,0 l/m 0 min 0 min 0 W/m 29,0 km/h (5 Bft) 100,00 %
17.11.2022 02:50 10,2 C 8,9 C 6,7 C 96 % 989,2 hPa 0,0 l/m 0 min 2 min 0 W/m 29,0 km/h (5 Bft) 97,87 %
17.11.2022 02:52 10,2 C 8,9 C 6,7 C 96 % 989,1 hPa 0,0 l/m 0 min 0 min 0 W/m 35,4 km/h (5 Bft) 97,87 %
17.11.2022 02:54 10,2 C 8,9 C 6,7 C 96 % 989,2 hPa 0,2 l/m 0 min 2 min 0 W/m 35,4 km/h (5 Bft) 97,87 %
17.11.2022 02:56 10,2 C 8,9 C 6,7 C 96 % 989,1 hPa 0,0 l/m 0 min 0 min 0 W/m 38,6 km/h (5 Bft) 93,48 %
17.11.2022 02:58 10,2 C 8,9 C 6,7 C 96 % 989,0 hPa 0,0 l/m 0 min 2 min 0 W/m 38,6 km/h (5 Bft) 97,87 %
17.11.2022 03:00 10,2 C 8,9 C 6,7 C 96 % 989,0 hPa 0,0 l/m 0 min 2 min 0 W/m 25,7 km/h (4 Bft) 95,74 %
17.11.2022 03:02 10,2 C 8,9 C 6,7 C 96 % 989,1 hPa 0,0 l/m 0 min 2 min 0 W/m 25,7 km/h (4 Bft) 93,62 %
17.11.2022 03:04 10,2 C 8,9 C 6,7 C 96 % 989,0 hPa 0,2 l/m 0 min 2 min 0 W/m 29,0 km/h (5 Bft) 95,74 %
17.11.2022 03:06 10,2 C 8,9 C 6,7 C 96 % 989,0 hPa 0,0 l/m 0 min 2 min 0 W/m 25,7 km/h (4 Bft) 94,83 %
17.11.2022 03:08 10,2 C 8,9 C 6,7 C 96 % 989,0 hPa 0,0 l/m 0 min 2 min 0 W/m 32,2 km/h (5 Bft) 94,29 %
17.11.2022 03:10 10,2 C 8,9 C 6,7 C 96 % 988,9 hPa 0,0 l/m 0 min 0 min 0 W/m 25,7 km/h (4 Bft) 91,49 %
17.11.2022 03:12 10,2 C 8,9 C 6,7 C 96 % 988,9 hPa 0,0 l/m 0 min 0 min 0 W/m 25,7 km/h (4 Bft) 91,49 %
17.11.2022 03:14 10,2 C 8,9 C 6,7 C 96 % 988,9 hPa 0,0 l/m 0 min 0 min 0 W/m 38,6 km/h (5 Bft) 95,74 %
17.11.2022 03:16 10,2 C 8,9 C 6,7 C 96 % 988,8 hPa 0,0 l/m 0 min 0 min 0 W/m 29,0 km/h (5 Bft) 95,74 %
17.11.2022 03:18 10,2 C 8,9 C 6,7 C 96 % 988,8 hPa 0,0 l/m 0 min 0 min 0 W/m 32,2 km/h (5 Bft) 97,87 %
17.11.2022 03:20 10,2 C 9,4 C 6,7 C 96 % 988,7 hPa 0,0 l/m 0 min 0 min 0 W/m 45,1 km/h (6 Bft) 93,48 %
17.11.2022 03:22 10,2 C 9,4 C 6,7 C 96 % 988,9 hPa 0,0 l/m 0 min 0 min 0 W/m 41,8 km/h (6 Bft) 95,74 %
17.11.2022 03:24 10,2 C 9,4 C 6,7 C 96 % 988,8 hPa 0,0 l/m 0 min 0 min 0 W/m 25,7 km/h (4 Bft) 93,62 %
17.11.2022 03:26 10,2 C 9,4 C 6,7 C 96 % 988,8 hPa 0,0 l/m 0 min 0 min 0 W/m 22,5 km/h (4 Bft) 95,74 %
17.11.2022 03:28 10,2 C 9,4 C 6,7 C 96 % 988,8 hPa 0,0 l/m 0 min 0 min 0 W/m 35,4 km/h (5 Bft) 95,74 %
17.11.2022 03:30 10,2 C 9,4 C 6,7 C 96 % 988,7 hPa 0,0 l/m 0 min 0 min 0 W/m 35,4 km/h (5 Bft) 93,48 %
17.11.2022 03:32 10,2 C 9,4 C 6,7 C 96 % 988,7 hPa 0,0 l/m 0 min 0 min 0 W/m 16,1 km/h (3 Bft) 95,74 %
17.11.2022 03:34 10,3 C 9,4 C 6,7 C 96 % 988,6 hPa 0,0 l/m 0 min 0 min 0 W/m 22,5 km/h (4 Bft) 93,62 %
17.11.2022 03:36 10,3 C 9,4 C 6,7 C 96 % 988,6 hPa 0,0 l/m 0 min 0 min 0 W/m 29,0 km/h (5 Bft) 93,62 %
17.11.2022 03:38 10,3 C 9,4 C 6,7 C 96 % 988,8 hPa 0,0 l/m 0 min 0 min 0 W/m 35,4 km/h (5 Bft) 95,74 %
17.11.2022 03:40 10,3 C 9,4 C 6,7 C 96 % 988,7 hPa 0,0 l/m 0 min 2 min 0 W/m 38,6 km/h (5 Bft) 93,62 %
17.11.2022 03:42 10,3 C 9,4 C 6,7 C 96 % 988,6 hPa 0,0 l/m 0 min 2 min 0 W/m 32,2 km/h (5 Bft) 97,83 %
17.11.2022 03:44 10,3 C 9,4 C 6,7 C 96 % 988,6 hPa 0,2 l/m 0 min 2 min 0 W/m 29,0 km/h (5 Bft) 97,87 %
17.11.2022 03:46 10,3 C 9,4 C 6,7 C 96 % 988,6 hPa 0,0 l/m 0 min 2 min 0 W/m 29,0 km/h (5 Bft) 95,74 %
17.11.2022 03:48 10,3 C 9,4 C 6,7 C 96 % 988,6 hPa 0,0 l/m 0 min 2 min 0 W/m 29,0 km/h (5 Bft) 97,87 %
17.11.2022 03:50 10,2 C 9,4 C 6,7 C 96 % 988,5 hPa 0,0 l/m 0 min 0 min 0 W/m 19,3 km/h (3 Bft) 95,74 %
17.11.2022 03:52 10,3 C 9,4 C 6,7 C 96 % 988,6 hPa 0,0 l/m 0 min 0 min 0 W/m 19,3 km/h (3 Bft) 97,87 %
17.11.2022 03:54 10,2 C 9,4 C 6,7 C 96 % 988,5 hPa 0,0 l/m 0 min 0 min 0 W/m 25,7 km/h (4 Bft) 97,83 %
17.11.2022 03:56 10,2 C 9,4 C 6,7 C 96 % 988,6 hPa 0,0 l/m 0 min 0 min 0 W/m 32,2 km/h (5 Bft) 95,74 %
17.11.2022 03:58 10,2 C 9,4 C 6,7 C 96 % 988,5 hPa 0,0 l/m 0 min 2 min 0 W/m 25,7 km/h (4 Bft) 97,87 %
17.11.2022 04:00 10,2 C 9,4 C 6,7 C 96 % 988,6 hPa 0,0 l/m 0 min 2 min 0 W/m 32,2 km/h (5 Bft) 95,74 %
17.11.2022 04:02 10,2 C 8,9 C 6,7 C 96 % 988,5 hPa 0,2 l/m 0 min 2 min 0 W/m 25,7 km/h (4 Bft) 97,87 %
17.11.2022 04:04 10,2 C 8,9 C 6,7 C 96 % 988,5 hPa 0,0 l/m 0 min 2 min 0 W/m 22,5 km/h (4 Bft) 95,74 %
17.11.2022 04:06 10,2 C 8,9 C 6,7 C 96 % 988,5 hPa 0,0 l/m 0 min 2 min 0 W/m 29,0 km/h (5 Bft) 98,00 %
17.11.2022 04:08 10,2 C 8,9 C 6,7 C 96 % 988,4 hPa 0,2 l/m 0 min 2 min 0 W/m 32,2 km/h (5 Bft) 97,87 %
17.11.2022 04:10 10,2 C 8,9 C 6,7 C 96 % 988,3 hPa 0,0 l/m 0 min 2 min 0 W/m 25,7 km/h (4 Bft) 97,87 %
17.11.2022 04:12 10,2 C 8,9 C 6,7 C 96 % 988,3 hPa 0,0 l/m 0 min 2 min 0 W/m 32,2 km/h (5 Bft) 97,87 %
17.11.2022 04:14 10,2 C 8,9 C 6,7 C 96 % 988,4 hPa 0,0 l/m 0 min 2 min 0 W/m 32,2 km/h (5 Bft) 97,87 %
17.11.2022 04:16 10,2 C 8,9 C 6,7 C 96 % 988,4 hPa 0,2 l/m 0 min 2 min 0 W/m 35,4 km/h (5 Bft) 95,65 %
17.11.2022 04:18 10,2 C 8,9 C 6,7 C 96 % 988,3 hPa 0,2 l/m 0 min 2 min 0 W/m 29,0 km/h (5 Bft) 97,87 %
17.11.2022 04:20 10,2 C 8,9 C 6,7 C 96 % 988,3 hPa 0,0 l/m 0 min 2 min 0 W/m 19,3 km/h (3 Bft) 97,87 %
17.11.2022 04:22 10,2 C 8,9 C 6,7 C 96 % 988,3 hPa 0,0 l/m 0 min 2 min 0 W/m 22,5 km/h (4 Bft) 97,87 %
17.11.2022 04:24 10,2 C 8,9 C 6,7 C 96 % 988,4 hPa 0,2 l/m 0 min 2 min 0 W/m 22,5 km/h (4 Bft) 100,00 %
17.11.2022 04:26 10,2 C 8,9 C 6,7 C 96 % 988,2 hPa 0,0 l/m 0 min 2 min 0 W/m 32,2 km/h (5 Bft) 97,87 %
17.11.2022 04:28 10,2 C 8,9 C 6,7 C 96 % 988,2 hPa 0,0 l/m 0 min 2 min 0 W/m 22,5 km/h (4 Bft) 100,00 %
17.11.2022 04:30 10,2 C 8,9 C 6,7 C 96 % 988,2 hPa 0,0 l/m 0 min 0 min 0 W/m 19,3 km/h (3 Bft) 100,00 %
17.11.2022 04:32 10,2 C 8,9 C 6,7 C 96 % 988,2 hPa 0,0 l/m 0 min 0 min 0 W/m 16,1 km/h (3 Bft) 100,00 %
17.11.2022 04:34 10,2 C 8,9 C 6,7 C 96 % 988,2 hPa 0,0 l/m 0 min 0 min 0 W/m 16,1 km/h (3 Bft) 97,87 %
17.11.2022 04:36 10,2 C 8,9 C 6,7 C 97 % 988,0 hPa 0,0 l/m 0 min 2 min 0 W/m 19,3 km/h (3 Bft) 100,00 %
17.11.2022 04:38 10,2 C 8,9 C 6,7 C 97 % 988,1 hPa 0,0 l/m 0 min 0 min 0 W/m 22,5 km/h (4 Bft) 100,00 %
17.11.2022 04:40 10,2 C 8,9 C 6,7 C 97 % 988,1 hPa 0,0 l/m 0 min 0 min 0 W/m 19,3 km/h (3 Bft) 100,00 %
17.11.2022 04:42 10,1 C 8,9 C 6,7 C 97 % 988,0 hPa 0,0 l/m 0 min 0 min 0 W/m 19,3 km/h (3 Bft) 100,00 %
17.11.2022 04:44 10,2 C 8,9 C 6,7 C 97 % 988,0 hPa 0,0 l/m 0 min 0 min 0 W/m 16,1 km/h (3 Bft) 95,74 %
17.11.2022 04:46 10,1 C 8,9 C 6,7 C 97 % 987,8 hPa 0,0 l/m 0 min 0 min 0 W/m 25,7 km/h (4 Bft) 97,87 %
17.11.2022 04:48 10,1 C 8,9 C 6,7 C 97 % 987,8 hPa 0,2 l/m 0 min 0 min 0 W/m 22,5 km/h (4 Bft) 100,00 %
17.11.2022 04:50 10,1 C 8,9 C 6,7 C 97 % 987,8 hPa 0,0 l/m 0 min 0 min 0 W/m 29,0 km/h (5 Bft) 100,00 %
17.11.2022 04:52 10,1 C 8,9 C 6,7 C 97 % 987,8 hPa 0,0 l/m 0 min 0 min 0 W/m 16,1 km/h (3 Bft) 100,00 %
17.11.2022 04:54 10,1 C 8,9 C 6,7 C 97 % 987,7 hPa 0,0 l/m 0 min 0 min 0 W/m 38,6 km/h (5 Bft) 97,87 %
17.11.2022 04:56 10,1 C 8,9 C 6,7 C 97 % 987,6 hPa 0,0 l/m 0 min 0 min 0 W/m 25,7 km/h (4 Bft) 100,00 %
17.11.2022 04:58 10,1 C 8,9 C 6,7 C 97 % 987,6 hPa 0,0 l/m 0 min 0 min 0 W/m 25,7 km/h (4 Bft) 97,87 %
17.11.2022 05:00 10,1 C 8,9 C 6,7 C 97 % 987,7 hPa 0,0 l/m 0 min 0 min 0 W/m 25,7 km/h (4 Bft) 100,00 %
17.11.2022 05:02 10,1 C 8,9 C 6,7 C 97 % 987,6 hPa 0,0 l/m 0 min 0 min 0 W/m 19,3 km/h (3 Bft) 100,00 %
17.11.2022 05:04 10,1 C 8,9 C 6,7 C 97 % 987,7 hPa 0,0 l/m 0 min 0 min 0 W/m 16,1 km/h (3 Bft) 100,00 %
17.11.2022 05:06 10,1 C 9,4 C 6,7 C 97 % 987,6 hPa 0,0 l/m 0 min 0 min 0 W/m 19,3 km/h (3 Bft) 100,00 %
17.11.2022 05:08 10,1 C 9,4 C 6,7 C 96 % 987,6 hPa 0,0 l/m 0 min 0 min 0 W/m 29,0 km/h (5 Bft) 100,00 %
17.11.2022 05:10 10,1 C 9,4 C 6,7 C 96 % 987,5 hPa 0,0 l/m 0 min 0 min 0 W/m 16,1 km/h (3 Bft) 100,00 %
17.11.2022 05:12 10,1 C 9,4 C 6,7 C 96 % 987,5 hPa 0,0 l/m 0 min 0 min 0 W/m 29,0 km/h (5 Bft) 100,00 %
17.11.2022 05:14 10,1 C 9,4 C 6,7 C 96 % 987,5 hPa 0,0 l/m 0 min 0 min 0 W/m 29,0 km/h (5 Bft) 100,00 %
17.11.2022 05:16 10,1 C 9,4 C 6,7 C 96 % 987,5 hPa 0,0 l/m 0 min 0 min 0 W/m 22,5 km/h (4 Bft) 100,00 %
17.11.2022 05:18 10,1 C 9,4 C 6,7 C 96 % 987,5 hPa 0,0 l/m 0 min 0 min 0 W/m 22,5 km/h (4 Bft) 97,87 %
17.11.2022 05:20 10,1 C 9,4 C 6,7 C 96 % 987,5 hPa 0,0 l/m 0 min 0 min 0 W/m 22,5 km/h (4 Bft) 100,00 %
17.11.2022 05:22 10,2 C 9,4 C 6,7 C 96 % 987,5 hPa 0,0 l/m 0 min 0 min 0 W/m 38,6 km/h (5 Bft) 100,00 %
17.11.2022 05:24 10,2 C 9,4 C 6,7 C 96 % 987,4 hPa 0,0 l/m 0 min 0 min 0 W/m 25,7 km/h (4 Bft) 95,74 %
17.11.2022 05:26 10,2 C 9,4 C 6,7 C 96 % 987,4 hPa 0,0 l/m 0 min 0 min 0 W/m 32,2 km/h (5 Bft) 97,87 %
17.11.2022 05:28 10,1 C 9,4 C 6,7 C 96 % 987,5 hPa 0,0 l/m 0 min 0 min 0 W/m 29,0 km/h (5 Bft) 100,00 %
17.11.2022 05:30 10,1 C 9,4 C 6,7 C 96 % 987,4 hPa 0,0 l/m 0 min 0 min 0 W/m 25,7 km/h (4 Bft) 95,74 %
17.11.2022 05:32 10,1 C 9,4 C 6,7 C 96 % 987,4 hPa 0,0 l/m 0 min 0 min 0 W/m 25,7 km/h (4 Bft) 97,87 %
17.11.2022 05:34 10,1 C 8,9 C 6,7 C 96 % 987,4 hPa 0,0 l/m 0 min 0 min 0 W/m 22,5 km/h (4 Bft) 95,74 %
17.11.2022 05:36 10,1 C 9,4 C 6,7 C 96 % 987,4 hPa 0,0 l/m 0 min 0 min 0 W/m 29,0 km/h (5 Bft) 97,87 %
17.11.2022 05:38 10,1 C 8,9 C 6,7 C 96 % 987,3 hPa 0,0 l/m 0 min 0 min 0 W/m 25,7 km/h (4 Bft) 97,87 %
17.11.2022 05:40 10,1 C 8,9 C 6,7 C 96 % 987,2 hPa 0,0 l/m 0 min 0 min 0 W/m 22,5 km/h (4 Bft) 95,65 %
17.11.2022 05:42 10,1 C 8,9 C 6,7 C 96 % 987,2 hPa 0,0 l/m 0 min 0 min 0 W/m 25,7 km/h (4 Bft) 97,87 %
17.11.2022 05:44 10,1 C 8,9 C 6,7 C 96 % 987,2 hPa 0,0 l/m 0 min 0 min 0 W/m 16,1 km/h (3 Bft) 91,49 %
17.11.2022 05:46 10,1 C 9,4 C 6,7 C 96 % 987,3 hPa 0,0 l/m 0 min 0 min 0 W/m 38,6 km/h (5 Bft) 93,62 %
17.11.2022 05:48 10,1 C 9,4 C 6,7 C 96 % 987,2 hPa 0,0 l/m 0 min 0 min 0 W/m 25,7 km/h (4 Bft) 95,74 %
17.11.2022 05:50 10,1 C 9,4 C 6,7 C 96 % 987,3 hPa 0,0 l/m 0 min 0 min 0 W/m 35,4 km/h (5 Bft) 93,48 %
17.11.2022 05:52 10,1 C 9,4 C 6,7 C 96 % 987,3 hPa 0,0 l/m 0 min 0 min 0 W/m 19,3 km/h (3 Bft) 95,74 %
17.11.2022 05:54 10,1 C 9,4 C 6,7 C 96 % 987,3 hPa 0,0 l/m 0 min 0 min 0 W/m 19,3 km/h (3 Bft) 93,62 %
17.11.2022 05:56 10,1 C 9,4 C 6,7 C 96 % 987,3 hPa 0,0 l/m 0 min 0 min 0 W/m 19,3 km/h (3 Bft) 93,62 %
17.11.2022 05:58 10,1 C 9,4 C 6,7 C 96 % 987,4 hPa 0,0 l/m 0 min 0 min 0 W/m 25,7 km/h (4 Bft) 93,62 %
17.11.2022 06:00 10,1 C 9,4 C 6,7 C 96 % 987,4 hPa 0,0 l/m 0 min 0 min 0 W/m 22,5 km/h (4 Bft) 95,74 %
17.11.2022 06:02 10,1 C 9,4 C 6,7 C 95 % 987,4 hPa 0,0 l/m 0 min 2 min 0 W/m 35,4 km/h (5 Bft) 93,48 %
17.11.2022 06:04 10,1 C 8,9 C 6,7 C 95 % 987,3 hPa 0,0 l/m 0 min 2 min 0 W/m 22,5 km/h (4 Bft) 92,11 %
17.11.2022 06:07 10,1 C 8,9 C 6,7 C 95 % 987,2 hPa 0,2 l/m 0 min 3 min 0 W/m 22,5 km/h (4 Bft) 92,11 %
17.11.2022 06:08 10,1 C 8,9 C 6,7 C 95 % 987,2 hPa 0,2 l/m 0 min 1 min 0 W/m 22,5 km/h (4 Bft) 93,00 %
17.11.2022 06:10 10,1 C 8,9 C 6,7 C 95 % 987,2 hPa 0,0 l/m 0 min 2 min 0 W/m 22,5 km/h (4 Bft) 93,62 %
17.11.2022 06:12 10,1 C 8,9 C 6,7 C 96 % 987,1 hPa 0,0 l/m 0 min 2 min 0 W/m 19,3 km/h (3 Bft) 95,74 %
17.11.2022 06:14 10,1 C 8,9 C 6,7 C 96 % 987,2 hPa 0,0 l/m 0 min 2 min 0 W/m 16,1 km/h (3 Bft) 97,87 %
17.11.2022 06:16 10,1 C 8,9 C 6,7 C 96 % 987,1 hPa 0,0 l/m 0 min 2 min 0 W/m 16,1 km/h (3 Bft) 97,83 %
17.11.2022 06:18 10,1 C 8,9 C 6,7 C 96 % 987,1 hPa 0,0 l/m 0 min 2 min 0 W/m 12,9 km/h (3 Bft) 95,74 %
17.11.2022 06:20 10,1 C 8,9 C 6,7 C 96 % 987,1 hPa 0,0 l/m 0 min 2 min 0 W/m 19,3 km/h (3 Bft) 97,87 %
17.11.2022 06:22 10,1 C 8,9 C 6,7 C 96 % 987,1 hPa 0,0 l/m 0 min 2 min 0 W/m 16,1 km/h (3 Bft) 97,87 %
17.11.2022 06:24 10,1 C 8,9 C 6,7 C 96 % 987,1 hPa 0,2 l/m 0 min 2 min 0 W/m 12,9 km/h (3 Bft) 95,74 %
17.11.2022 06:26 10,1 C 8,9 C 6,7 C 96 % 987,1 hPa 0,0 l/m 0 min 2 min 0 W/m 16,1 km/h (3 Bft) 95,74 %
17.11.2022 06:28 10,1 C 8,9 C 6,7 C 96 % 987,1 hPa 0,0 l/m 0 min 2 min 0 W/m 22,5 km/h (4 Bft) 97,83 %
17.11.2022 06:30 10,1 C 8,9 C 6,7 C 96 % 987,1 hPa 0,0 l/m 0 min 2 min 0 W/m 19,3 km/h (3 Bft) 95,74 %
17.11.2022 06:32 10,1 C 8,9 C 6,7 C 96 % 987,0 hPa 0,2 l/m 0 min 2 min 0 W/m 32,2 km/h (5 Bft) 97,87 %
17.11.2022 06:34 10,1 C 8,9 C 6,7 C 96 % 987,1 hPa 0,0 l/m 0 min 2 min 0 W/m 19,3 km/h (3 Bft) 97,87 %
17.11.2022 06:36 10,1 C 8,9 C 6,7 C 96 % 987,1 hPa 0,0 l/m 0 min 2 min 0 W/m 16,1 km/h (3 Bft) 97,87 %
17.11.2022 06:38 10,1 C 8,9 C 6,7 C 96 % 987,1 hPa 0,2 l/m 0 min 2 min 0 W/m 16,1 km/h (3 Bft) 95,74 %
17.11.2022 06:40 10,1 C 8,9 C 6,7 C 96 % 987,1 hPa 0,0 l/m 0 min 2 min 0 W/m 19,3 km/h (3 Bft) 97,83 %
17.11.2022 06:42 10,1 C 8,9 C 6,7 C 96 % 987,0 hPa 0,0 l/m 0 min 2 min 0 W/m 19,3 km/h (3 Bft) 100,00 %
17.11.2022 06:44 10,1 C 8,9 C 6,7 C 96 % 987,0 hPa 0,0 l/m 0 min 2 min 0 W/m 9,7 km/h (2 Bft) 95,74 %
17.11.2022 06:46 10,1 C 8,9 C 6,7 C 96 % 987,1 hPa 0,2 l/m 0 min 2 min 0 W/m 19,3 km/h (3 Bft) 100,00 %
17.11.2022 06:48 10,1 C 8,9 C 6,7 C 96 % 987,1 hPa 0,0 l/m 0 min 2 min 0 W/m 16,1 km/h (3 Bft) 100,00 %
17.11.2022 06:50 10,1 C 9,4 C 6,7 C 96 % 987,1 hPa 0,0 l/m 0 min 2 min 0 W/m 19,3 km/h (3 Bft) 97,87 %
17.11.2022 06:52 10,1 C 9,4 C 6,7 C 96 % 987,0 hPa 0,0 l/m 0 min 2 min 0 W/m 19,3 km/h (3 Bft) 100,00 %
17.11.2022 06:54 10,1 C 9,4 C 6,7 C 96 % 987,1 hPa 0,0 l/m 0 min 2 min 0 W/m 19,3 km/h (3 Bft) 97,87 %
17.11.2022 06:56 10,1 C 9,4 C 6,7 C 97 % 987,3 hPa 0,0 l/m 0 min 2 min 0 W/m 22,5 km/h (4 Bft) 100,00 %
17.11.2022 06:58 10,1 C 9,4 C 6,7 C 97 % 987,3 hPa 0,0 l/m 0 min 2 min 0 W/m 32,2 km/h (5 Bft) 100,00 %
17.11.2022 07:00 10,1 C 9,4 C 6,7 C 97 % 987,4 hPa 0,0 l/m 0 min 2 min 0 W/m 19,3 km/h (3 Bft) 100,00 %
17.11.2022 07:02 10,1 C 9,4 C 6,7 C 97 % 987,3 hPa 0,0 l/m 0 min 2 min 0 W/m 22,5 km/h (4 Bft) 97,87 %
17.11.2022 07:04 10,1 C 9,4 C 6,7 C 97 % 987,2 hPa 0,0 l/m 0 min 2 min 0 W/m 29,0 km/h (5 Bft) 100,00 %
17.11.2022 07:06 10,1 C 9,4 C 6,7 C 97 % 987,4 hPa 0,2 l/m 0 min 2 min 0 W/m 22,5 km/h (4 Bft) 100,00 %
17.11.2022 07:08 10,1 C 9,4 C 6,7 C 97 % 987,5 hPa 0,0 l/m 0 min 2 min 0 W/m 16,1 km/h (3 Bft) 100,00 %
17.11.2022 07:10 10,1 C 9,4 C 6,7 C 97 % 987,4 hPa 0,0 l/m 0 min 0 min 0 W/m 19,3 km/h (3 Bft) 100,00 %
17.11.2022 07:12 10,1 C 9,4 C 6,7 C 97 % 987,4 hPa 0,0 l/m 0 min 0 min 0 W/m 16,1 km/h (3 Bft) 100,00 %
17.11.2022 07:14 10,1 C 9,4 C 6,7 C 97 % 987,4 hPa 0,0 l/m 0 min 2 min 0 W/m 12,9 km/h (3 Bft) 100,00 %
17.11.2022 07:16 10,1 C 9,4 C 6,7 C 97 % 987,4 hPa 0,0 l/m 0 min 0 min 0 W/m 19,3 km/h (3 Bft) 100,00 %
17.11.2022 07:18 10,1 C 9,4 C 6,7 C 97 % 987,4 hPa 0,0 l/m 0 min 0 min 0 W/m 16,1 km/h (3 Bft) 100,00 %
17.11.2022 07:20 10,2 C 9,4 C 6,7 C 97 % 987,4 hPa 0,0 l/m 0 min 0 min 0 W/m 29,0 km/h (5 Bft) 100,00 %
17.11.2022 07:22 10,2 C 9,4 C 6,7 C 97 % 987,5 hPa 0,0 l/m 0 min 0 min 0 W/m 12,9 km/h (3 Bft) 97,87 %
17.11.2022 07:24 10,2 C 9,4 C 6,7 C 97 % 987,4 hPa 0,0 l/m 0 min 0 min 0 W/m 29,0 km/h (5 Bft) 100,00 %
17.11.2022 07:26 10,2 C 9,4 C 6,7 C 97 % 987,4 hPa 0,0 l/m 0 min 0 min 0 W/m 16,1 km/h (3 Bft) 100,00 %
17.11.2022 07:28 10,2 C 9,4 C 6,7 C 97 % 987,5 hPa 0,0 l/m 0 min 0 min 0 W/m 22,5 km/h (4 Bft) 100,00 %
17.11.2022 07:30 10,2 C 9,4 C 6,7 C 97 % 987,4 hPa 0,0 l/m 0 min 0 min 0 W/m 22,5 km/h (4 Bft) 97,87 %
17.11.2022 07:32 10,2 C 9,4 C 6,7 C 97 % 987,4 hPa 0,0 l/m 0 min 0 min 0 W/m 19,3 km/h (3 Bft) 97,87 %
17.11.2022 07:34 10,2 C 9,4 C 6,7 C 97 % 987,4 hPa 0,0 l/m 0 min 0 min 0 W/m 12,9 km/h (3 Bft) 100,00 %
17.11.2022 07:36 10,2 C 9,4 C 6,7 C 97 % 987,4 hPa 0,0 l/m 0 min 0 min 0 W/m 19,3 km/h (3 Bft) 97,87 %
17.11.2022 07:38 10,3 C 9,4 C 6,7 C 97 % 987,4 hPa 0,0 l/m 0 min 0 min 0 W/m 22,5 km/h (4 Bft) 97,87 %
17.11.2022 07:40 10,2 C 9,4 C 6,7 C 97 % 987,4 hPa 0,0 l/m 0 min 0 min 0 W/m 16,1 km/h (3 Bft) 97,83 %
17.11.2022 07:42 10,2 C 9,4 C 6,7 C 97 % 987,4 hPa 0,0 l/m 0 min 0 min 0 W/m 19,3 km/h (3 Bft) 95,74 %
17.11.2022 07:44 10,2 C 9,4 C 6,7 C 97 % 987,5 hPa 0,0 l/m 0 min 0 min 0 W/m 22,5 km/h (4 Bft) 95,74 %
17.11.2022 07:46 10,2 C 9,4 C 6,7 C 97 % 987,5 hPa 0,0 l/m 0 min 0 min 0 W/m 12,9 km/h (3 Bft) 97,87 %
17.11.2022 07:48 10,3 C 9,4 C 6,7 C 97 % 987,6 hPa 0,0 l/m 0 min 0 min 0 W/m 19,3 km/h (3 Bft) 97,87 %
17.11.2022 07:50 10,2 C 9,4 C 6,7 C 97 % 987,6 hPa 0,0 l/m 0 min 0 min 0 W/m 12,9 km/h (3 Bft) 97,87 %
17.11.2022 07:52 10,2 C 9,4 C 6,7 C 96 % 987,7 hPa 0,0 l/m 0 min 0 min 0 W/m 9,7 km/h (2 Bft) 95,65 %
17.11.2022 07:54 10,2 C 9,4 C 6,7 C 96 % 987,7 hPa 0,0 l/m 0 min 0 min 0 W/m 12,9 km/h (3 Bft) 95,74 %
17.11.2022 07:56 10,2 C 9,4 C 6,7 C 96 % 987,7 hPa 0,0 l/m 0 min 0 min 0 W/m 16,1 km/h (3 Bft) 97,87 %
17.11.2022 07:58 10,2 C 9,4 C 6,7 C 96 % 987,7 hPa 0,0 l/m 0 min 0 min 0 W/m 9,7 km/h (2 Bft) 97,87 %
17.11.2022 08:00 10,2 C 9,4 C 6,7 C 96 % 987,7 hPa 0,0 l/m 0 min 0 min 0 W/m 12,9 km/h (3 Bft) 91,49 %
17.11.2022 08:02 10,2 C 9,4 C 6,7 C 96 % 987,7 hPa 0,0 l/m 0 min 0 min 0 W/m 16,1 km/h (3 Bft) 95,74 %
17.11.2022 08:04 10,2 C 9,4 C 6,7 C 96 % 987,8 hPa 0,0 l/m 0 min 0 min 0 W/m 16,1 km/h (3 Bft) 95,35 %
17.11.2022 08:06 10,2 C 9,4 C 6,7 C 96 % 987,9 hPa 0,0 l/m 0 min 0 min 0 W/m 19,3 km/h (3 Bft) 97,87 %
17.11.2022 08:08 10,2 C 9,4 C 6,7 C 96 % 987,9 hPa 0,0 l/m 0 min 0 min 0 W/m 22,5 km/h (4 Bft) 95,74 %
17.11.2022 08:10 10,3 C 9,4 C 6,7 C 96 % 987,9 hPa 0,0 l/m 0 min 0 min 0 W/m 12,9 km/h (3 Bft) 97,87 %
17.11.2022 08:12 10,3 C 9,4 C 6,7 C 96 % 988,0 hPa 0,0 l/m 0 min 0 min 4 W/m 16,1 km/h (3 Bft) 97,87 %
17.11.2022 08:14 10,3 C 9,4 C 6,7 C 96 % 988,0 hPa 0,0 l/m 0 min 0 min 5 W/m 22,5 km/h (4 Bft) 100,00 %
17.11.2022 08:16 10,3 C 9,4 C 6,7 C 96 % 988,0 hPa 0,0 l/m 0 min 0 min 7 W/m 29,0 km/h (5 Bft) 97,87 %
17.11.2022 08:18 10,3 C 9,4 C 6,7 C 96 % 988,0 hPa 0,0 l/m 0 min 0 min 7 W/m 16,1 km/h (3 Bft) 97,87 %
17.11.2022 08:20 10,3 C 9,4 C 6,7 C 96 % 988,1 hPa 0,0 l/m 0 min 0 min 7 W/m 6,4 km/h (2 Bft) 97,87 %
17.11.2022 08:22 10,3 C 9,4 C 6,7 C 96 % 988,1 hPa 0,0 l/m 0 min 0 min 7 W/m 16,1 km/h (3 Bft) 97,87 %
17.11.2022 08:24 10,3 C 9,4 C 6,7 C 96 % 988,2 hPa 0,0 l/m 0 min 0 min 8 W/m 19,3 km/h (3 Bft) 95,74 %
17.11.2022 08:26 10,4 C 9,4 C 6,7 C 96 % 988,1 hPa 0,0 l/m 0 min 0 min 9 W/m 19,3 km/h (3 Bft) 97,83 %
17.11.2022 08:28 10,4 C 10,0 C 6,7 C 95 % 988,3 hPa 0,0 l/m 0 min 0 min 9 W/m 19,3 km/h (3 Bft) 93,62 %
17.11.2022 08:30 10,4 C 10,0 C 6,7 C 95 % 988,2 hPa 0,0 l/m 0 min 2 min 9 W/m 16,1 km/h (3 Bft) 97,87 %
17.11.2022 08:32 10,4 C 10,0 C 6,7 C 95 % 988,2 hPa 0,0 l/m 0 min 2 min 7 W/m 25,7 km/h (4 Bft) 93,62 %
17.11.2022 08:34 10,5 C 9,4 C 6,7 C 95 % 988,3 hPa 0,0 l/m 0 min 2 min 7 W/m 9,7 km/h (2 Bft) 97,87 %
17.11.2022 08:36 10,5 C 9,4 C 6,7 C 95 % 988,3 hPa 0,0 l/m 0 min 2 min 9 W/m 12,9 km/h (3 Bft) 97,87 %
17.11.2022 08:38 10,4 C 9,4 C 6,7 C 95 % 988,3 hPa 0,0 l/m 0 min 2 min 10 W/m 16,1 km/h (3 Bft) 97,83 %
17.11.2022 08:40 10,4 C 9,4 C 6,7 C 94 % 988,2 hPa 0,0 l/m 0 min 2 min 13 W/m 12,9 km/h (3 Bft) 97,87 %
17.11.2022 08:42 10,4 C 9,4 C 6,7 C 94 % 988,3 hPa 0,0 l/m 0 min 2 min 17 W/m 19,3 km/h (3 Bft) 100,00 %
17.11.2022 08:44 10,4 C 9,4 C 6,7 C 94 % 988,3 hPa 0,0 l/m 0 min 2 min 18 W/m 9,7 km/h (2 Bft) 100,00 %
17.11.2022 08:46 10,4 C 9,4 C 6,7 C 94 % 988,3 hPa 0,0 l/m 0 min 2 min 18 W/m 32,2 km/h (5 Bft) 100,00 %
17.11.2022 08:48 10,4 C 9,4 C 6,7 C 94 % 988,4 hPa 0,0 l/m 0 min 0 min 18 W/m 16,1 km/h (3 Bft) 100,00 %
17.11.2022 08:50 10,4 C 9,4 C 6,7 C 94 % 988,4 hPa 0,0 l/m 0 min 0 min 16 W/m 12,9 km/h (3 Bft) 100,00 %
17.11.2022 08:52 10,4 C 9,4 C 6,7 C 94 % 988,4 hPa 0,0 l/m 0 min 0 min 16 W/m 29,0 km/h (5 Bft) 100,00 %
17.11.2022 08:54 10,3 C 9,4 C 6,7 C 93 % 988,4 hPa 0,0 l/m 0 min 2 min 16 W/m 22,5 km/h (4 Bft) 97,87 %
17.11.2022 08:56 10,3 C 9,4 C 6,7 C 93 % 988,4 hPa 0,0 l/m 0 min 2 min 16 W/m 25,7 km/h (4 Bft) 97,87 %
17.11.2022 08:58 10,3 C 9,4 C 6,7 C 93 % 988,5 hPa 0,0 l/m 0 min 2 min 18 W/m 29,0 km/h (5 Bft) 95,74 %
17.11.2022 09:00 10,3 C 9,4 C 6,7 C 93 % 988,5 hPa 0,0 l/m 0 min 0 min 18 W/m 25,7 km/h (4 Bft) 95,74 %
17.11.2022 09:02 10,4 C 9,4 C 6,7 C 93 % 988,6 hPa 0,0 l/m 0 min 2 min 20 W/m 29,0 km/h (5 Bft) 97,83 %
17.11.2022 09:04 10,4 C 9,4 C 6,7 C 93 % 988,5 hPa 0,0 l/m 0 min 2 min 22 W/m 38,6 km/h (5 Bft) 97,92 %
17.11.2022 09:06 10,4 C 9,4 C 6,7 C 93 % 988,6 hPa 0,0 l/m 0 min 2 min 23 W/m 25,7 km/h (4 Bft) 97,87 %
17.11.2022 09:08 10,4 C 9,4 C 6,7 C 93 % 988,6 hPa 0,0 l/m 0 min 2 min 22 W/m 16,1 km/h (3 Bft) 95,74 %
17.11.2022 09:10 10,4 C 9,4 C 6,7 C 93 % 988,7 hPa 0,2 l/m 0 min 2 min 20 W/m 9,7 km/h (2 Bft) 97,87 %
17.11.2022 09:12 10,4 C 9,4 C 6,7 C 93 % 988,8 hPa 0,0 l/m 0 min 2 min 22 W/m 22,5 km/h (4 Bft) 95,74 %
17.11.2022 09:14 10,4 C 9,4 C 6,7 C 93 % 988,7 hPa 0,0 l/m 0 min 2 min 25 W/m 19,3 km/h (3 Bft) 97,83 %
17.11.2022 09:16 10,4 C 9,4 C 6,7 C 93 % 988,8 hPa 0,0 l/m 0 min 2 min 23 W/m 19,3 km/h (3 Bft) 93,62 %
17.11.2022 09:18 10,4 C 9,4 C 6,7 C 93 % 988,7 hPa 0,0 l/m 0 min 2 min 20 W/m 12,9 km/h (3 Bft) 97,87 %
17.11.2022 09:20 10,4 C 9,4 C 6,7 C 93 % 988,8 hPa 0,0 l/m 0 min 2 min 21 W/m 19,3 km/h (3 Bft) 97,87 %
17.11.2022 09:22 10,4 C 9,4 C 6,7 C 93 % 988,8 hPa 0,0 l/m 0 min 2 min 25 W/m 25,7 km/h (4 Bft) 97,87 %
17.11.2022 09:24 10,4 C 9,4 C 6,7 C 93 % 988,7 hPa 0,0 l/m 0 min 2 min 26 W/m 54,7 km/h (7 Bft) 97,87 %
17.11.2022 09:26 10,3 C 9,4 C 6,7 C 93 % 988,8 hPa 0,0 l/m 0 min 2 min 30 W/m 41,8 km/h (6 Bft) 95,65 %
17.11.2022 09:28 10,3 C 9,4 C 6,7 C 93 % 988,9 hPa 0,0 l/m 0 min 0 min 36 W/m 29,0 km/h (5 Bft) 95,74 %
17.11.2022 09:30 10,3 C 9,4 C 6,7 C 93 % 988,9 hPa 0,0 l/m 0 min 2 min 37 W/m 32,2 km/h (5 Bft) 93,62 %
17.11.2022 09:32 10,3 C 9,4 C 6,7 C 93 % 988,9 hPa 0,0 l/m 0 min 2 min 35 W/m 22,5 km/h (4 Bft) 95,74 %
17.11.2022 09:34 10,3 C 9,4 C 6,7 C 93 % 988,9 hPa 0,0 l/m 0 min 2 min 35 W/m 29,0 km/h (5 Bft) 93,62 %
17.11.2022 09:36 10,3 C 9,4 C 6,7 C 93 % 988,9 hPa 0,2 l/m 0 min 2 min 37 W/m 22,5 km/h (4 Bft) 95,74 %
17.11.2022 09:38 10,3 C 9,4 C 6,7 C 93 % 988,9 hPa 0,0 l/m 0 min 2 min 41 W/m 19,3 km/h (3 Bft) 95,65 %
17.11.2022 09:40 10,3 C 9,4 C 6,7 C 93 % 988,9 hPa 0,0 l/m 0 min 2 min 51 W/m 22,5 km/h (4 Bft) 97,87 %
17.11.2022 09:42 10,3 C 9,4 C 6,7 C 94 % 988,9 hPa 0,0 l/m 0 min 2 min 56 W/m 22,5 km/h (4 Bft) 93,62 %
17.11.2022 09:44 10,3 C 9,4 C 6,7 C 94 % 989,0 hPa 0,0 l/m 0 min 0 min 68 W/m 19,3 km/h (3 Bft) 95,74 %
17.11.2022 09:46 10,3 C 9,4 C 6,7 C 94 % 989,0 hPa 0,0 l/m 0 min 0 min 69 W/m 19,3 km/h (3 Bft) 91,49 %
17.11.2022 09:48 10,3 C 9,4 C 6,7 C 94 % 989,0 hPa 0,0 l/m 0 min 0 min 67 W/m 25,7 km/h (4 Bft) 93,62 %
17.11.2022 09:50 10,3 C 9,4 C 6,7 C 94 % 989,0 hPa 0,0 l/m 0 min 0 min 63 W/m 22,5 km/h (4 Bft) 95,65 %
17.11.2022 09:52 10,3 C 9,4 C 6,7 C 94 % 989,0 hPa 0,0 l/m 0 min 0 min 59 W/m 9,7 km/h (2 Bft) 95,74 %
17.11.2022 09:54 10,3 C 9,4 C 6,7 C 94 % 989,1 hPa 0,0 l/m 0 min 0 min 59 W/m 6,4 km/h (2 Bft) 97,87 %
17.11.2022 09:56 10,3 C 9,4 C 6,7 C 94 % 989,1 hPa 0,0 l/m 0 min 0 min 60 W/m 6,4 km/h (2 Bft) 95,74 %
17.11.2022 09:58 10,3 C 9,4 C 6,7 C 94 % 989,1 hPa 0,0 l/m 0 min 0 min 62 W/m 12,9 km/h (3 Bft) 100,00 %
17.11.2022 10:00 10,3 C 9,4 C 6,7 C 94 % 989,1 hPa 0,0 l/m 0 min 0 min 62 W/m 12,9 km/h (3 Bft) 100,00 %
17.11.2022 10:02 10,3 C 9,4 C 6,7 C 94 % 989,1 hPa 0,0 l/m 0 min 0 min 60 W/m 9,7 km/h (2 Bft) 93,48 %
17.11.2022 10:04 10,4 C 10,0 C 6,7 C 94 % 989,1 hPa 0,0 l/m 0 min 0 min 60 W/m 16,1 km/h (3 Bft) 100,00 %
17.11.2022 10:06 10,4 C 10,0 C 6,7 C 94 % 989,1 hPa 0,0 l/m 0 min 0 min 61 W/m 9,7 km/h (2 Bft) 100,00 %
17.11.2022 10:08 10,4 C 10,0 C 6,7 C 94 % 989,1 hPa 0,0 l/m 0 min 0 min 60 W/m 6,4 km/h (2 Bft) 97,87 %
17.11.2022 10:10 10,4 C 10,0 C 6,7 C 94 % 989,2 hPa 0,0 l/m 0 min 0 min 60 W/m 16,1 km/h (3 Bft) 100,00 %
17.11.2022 10:12 10,4 C 10,0 C 6,7 C 94 % 989,2 hPa 0,0 l/m 0 min 0 min 56 W/m 16,1 km/h (3 Bft) 97,87 %
17.11.2022 10:14 10,4 C 10,0 C 6,7 C 93 % 989,2 hPa 0,0 l/m 0 min 0 min 52 W/m 19,3 km/h (3 Bft) 100,00 %
17.11.2022 10:16 10,4 C 10,0 C 6,7 C 93 % 989,2 hPa 0,0 l/m 0 min 0 min 49 W/m 19,3 km/h (3 Bft) 100,00 %
17.11.2022 10:18 10,5 C 10,0 C 6,7 C 93 % 989,3 hPa 0,0 l/m 0 min 0 min 46 W/m 16,1 km/h (3 Bft) 95,74 %
17.11.2022 10:20 10,5 C 10,0 C 6,7 C 93 % 989,4 hPa 0,0 l/m 0 min 0 min 43 W/m 12,9 km/h (3 Bft) 97,87 %
17.11.2022 10:22 10,6 C 10,0 C 6,7 C 93 % 989,3 hPa 0,0 l/m 0 min 0 min 45 W/m 16,1 km/h (3 Bft) 95,74 %
17.11.2022 10:24 10,6 C 10,0 C 6,7 C 93 % 989,4 hPa 0,0 l/m 0 min 0 min 58 W/m 25,7 km/h (4 Bft) 95,74 %
17.11.2022 10:26 10,6 C 10,0 C 6,7 C 92 % 989,4 hPa 0,0 l/m 0 min 0 min 65 W/m 19,3 km/h (3 Bft) 97,83 %
17.11.2022 10:28 10,7 C 10,6 C 6,7 C 92 % 989,5 hPa 0,0 l/m 0 min 0 min 72 W/m 29,0 km/h (5 Bft) 97,87 %
17.11.2022 10:30 10,7 C 10,6 C 6,7 C 92 % 989,4 hPa 0,0 l/m 0 min 0 min 77 W/m 16,1 km/h (3 Bft) 97,87 %
17.11.2022 10:32 10,8 C 10,6 C 6,7 C 92 % 989,4 hPa 0,0 l/m 0 min 0 min 74 W/m 16,1 km/h (3 Bft) 97,87 %
17.11.2022 10:34 10,8 C 10,6 C 6,7 C 92 % 989,6 hPa 0,0 l/m 0 min 0 min 72 W/m 35,4 km/h (5 Bft) 97,87 %
17.11.2022 10:36 10,8 C 10,6 C 6,7 C 91 % 989,6 hPa 0,0 l/m 0 min 0 min 84 W/m 29,0 km/h (5 Bft) 97,87 %
17.11.2022 10:38 10,9 C 10,6 C 6,7 C 91 % 989,6 hPa 0,0 l/m 0 min 0 min 89 W/m 16,1 km/h (3 Bft) 95,65 %
17.11.2022 10:40 10,9 C 10,6 C 6,7 C 90 % 989,6 hPa 0,0 l/m 0 min 0 min 88 W/m 22,5 km/h (4 Bft) 97,87 %
17.11.2022 10:42 11,0 C 10,6 C 6,7 C 90 % 989,6 hPa 0,0 l/m 0 min 0 min 83 W/m 29,0 km/h (5 Bft) 97,87 %
17.11.2022 10:44 11,0 C 10,6 C 6,7 C 90 % 989,6 hPa 0,0 l/m 0 min 0 min 81 W/m 25,7 km/h (4 Bft) 95,74 %
17.11.2022 10:46 11,1 C 10,6 C 6,7 C 90 % 989,6 hPa 0,0 l/m 0 min 0 min 72 W/m 38,6 km/h (5 Bft) 97,87 %
17.11.2022 10:48 11,1 C 10,6 C 6,7 C 89 % 989,7 hPa 0,0 l/m 0 min 0 min 69 W/m 32,2 km/h (5 Bft) 97,87 %
17.11.2022 10:50 11,1 C 10,6 C 6,7 C 89 % 989,7 hPa 0,0 l/m 0 min 0 min 76 W/m 22,5 km/h (4 Bft) 97,87 %
17.11.2022 10:52 11,2 C 11,1 C 6,7 C 88 % 989,7 hPa 0,0 l/m 0 min 0 min 83 W/m 16,1 km/h (3 Bft) 95,74 %
17.11.2022 10:54 11,2 C 11,1 C 6,7 C 88 % 989,8 hPa 0,0 l/m 0 min 0 min 78 W/m 25,7 km/h (4 Bft) 97,87 %
17.11.2022 10:56 11,2 C 11,1 C 6,7 C 88 % 989,8 hPa 0,0 l/m 0 min 0 min 77 W/m 19,3 km/h (3 Bft) 97,87 %
17.11.2022 10:58 11,2 C 11,1 C 6,7 C 88 % 989,8 hPa 0,0 l/m 0 min 0 min 82 W/m 16,1 km/h (3 Bft) 95,74 %
17.11.2022 11:00 11,2 C 11,1 C 6,7 C 88 % 989,8 hPa 0,0 l/m 0 min 0 min 80 W/m 25,7 km/h (4 Bft) 97,83 %
17.11.2022 11:02 11,3 C 11,1 C 6,7 C 88 % 989,8 hPa 0,0 l/m 0 min 2 min 81 W/m 22,5 km/h (4 Bft) 95,74 %
17.11.2022 11:04 11,3 C 11,1 C 6,7 C 87 % 989,9 hPa 0,0 l/m 0 min 0 min 81 W/m 35,4 km/h (5 Bft) 95,74 %
17.11.2022 11:06 11,3 C 11,1 C 6,7 C 87 % 989,9 hPa 0,0 l/m 0 min 0 min 83 W/m 29,0 km/h (5 Bft) 100,00 %
17.11.2022 11:08 11,3 C 11,1 C 6,7 C 87 % 989,9 hPa 0,0 l/m 0 min 0 min 102 W/m 22,5 km/h (4 Bft) 95,74 %
17.11.2022 11:10 11,4 C 11,1 C 6,7 C 86 % 989,9 hPa 0,0 l/m 0 min 0 min 112 W/m 25,7 km/h (4 Bft) 97,87 %
17.11.2022 11:12 11,4 C 11,1 C 6,7 C 86 % 989,9 hPa 0,0 l/m 0 min 0 min 110 W/m 25,7 km/h (4 Bft) 100,00 %
17.11.2022 11:14 11,4 C 11,1 C 6,7 C 86 % 989,9 hPa 0,0 l/m 0 min 0 min 106 W/m 41,8 km/h (6 Bft) 100,00 %
17.11.2022 11:16 11,5 C 11,1 C 6,7 C 86 % 990,0 hPa 0,0 l/m 0 min 0 min 107 W/m 22,5 km/h (4 Bft) 95,74 %
17.11.2022 11:18 11,5 C 11,1 C 6,7 C 85 % 990,0 hPa 0,0 l/m 0 min 0 min 92 W/m 19,3 km/h (3 Bft) 97,87 %
17.11.2022 11:20 11,5 C 11,1 C 6,7 C 85 % 990,1 hPa 0,0 l/m 0 min 0 min 70 W/m 19,3 km/h (3 Bft) 97,87 %
17.11.2022 11:22 11,6 C 11,1 C 6,7 C 85 % 990,1 hPa 0,0 l/m 0 min 0 min 61 W/m 35,4 km/h (5 Bft) 95,74 %
17.11.2022 11:24 11,6 C 11,1 C 6,7 C 85 % 990,1 hPa 0,0 l/m 0 min 0 min 69 W/m 32,2 km/h (5 Bft) 97,83 %
17.11.2022 11:26 11,6 C 11,1 C 6,7 C 84 % 990,1 hPa 0,0 l/m 0 min 0 min 76 W/m 41,8 km/h (6 Bft) 97,87 %
17.11.2022 11:28 11,6 C 11,1 C 6,7 C 84 % 990,2 hPa 0,0 l/m 0 min 0 min 82 W/m 22,5 km/h (4 Bft) 93,62 %
17.11.2022 11:30 11,6 C 11,1 C 6,7 C 84 % 990,2 hPa 0,0 l/m 0 min 0 min 114 W/m 32,2 km/h (5 Bft) 97,87 %
17.11.2022 11:32 11,6 C 11,7 C 6,7 C 84 % 990,1 hPa 0,0 l/m 2 min 0 min 174 W/m 25,7 km/h (4 Bft) 97,87 %
17.11.2022 11:34 11,7 C 11,7 C 6,7 C 84 % 990,2 hPa 0,0 l/m 2 min 0 min 171 W/m 29,0 km/h (5 Bft) 95,74 %
17.11.2022 11:36 11,7 C 11,7 C 6,7 C 84 % 990,1 hPa 0,0 l/m 0 min 0 min 127 W/m 41,8 km/h (6 Bft) 97,83 %
17.11.2022 11:38 11,8 C 11,7 C 6,7 C 84 % 990,2 hPa 0,0 l/m 0 min 0 min 121 W/m 32,2 km/h (5 Bft) 97,87 %
17.11.2022 11:40 11,8 C 11,7 C 6,7 C 84 % 990,1 hPa 0,0 l/m 0 min 0 min 109 W/m 19,3 km/h (3 Bft) 95,74 %
17.11.2022 11:42 11,8 C 11,7 C 6,7 C 84 % 990,1 hPa 0,0 l/m 0 min 0 min 95 W/m 19,3 km/h (3 Bft) 95,74 %
17.11.2022 11:44 11,8 C 11,7 C 6,7 C 83 % 990,2 hPa 0,0 l/m 0 min 0 min 82 W/m 19,3 km/h (3 Bft) 95,74 %
17.11.2022 11:46 11,8 C 11,7 C 6,7 C 83 % 990,2 hPa 0,0 l/m 0 min 0 min 91 W/m 22,5 km/h (4 Bft) 93,62 %
17.11.2022 11:48 11,8 C 11,7 C 7,2 C 83 % 990,2 hPa 0,0 l/m 0 min 0 min 96 W/m 22,5 km/h (4 Bft) 100,00 %
17.11.2022 11:50 11,9 C 11,7 C 7,2 C 82 % 990,2 hPa 0,0 l/m 0 min 0 min 67 W/m 35,4 km/h (5 Bft) 100,00 %
17.11.2022 11:52 11,9 C 11,1 C 7,2 C 83 % 990,2 hPa 0,0 l/m 0 min 0 min 54 W/m 22,5 km/h (4 Bft) 97,87 %
17.11.2022 11:54 11,9 C 11,1 C 7,2 C 83 % 990,2 hPa 0,0 l/m 0 min 0 min 55 W/m 22,5 km/h (4 Bft) 100,00 %
17.11.2022 11:56 11,8 C 11,1 C 7,2 C 82 % 990,2 hPa 0,0 l/m 0 min 0 min 73 W/m 29,0 km/h (5 Bft) 100,00 %
17.11.2022 11:58 11,8 C 11,7 C 7,2 C 82 % 990,2 hPa 0,0 l/m 0 min 0 min 82 W/m 35,4 km/h (5 Bft) 97,87 %
17.11.2022 12:00 11,8 C 11,7 C 7,8 C 82 % 990,2 hPa 0,0 l/m 0 min 0 min 107 W/m 35,4 km/h (5 Bft) 97,14 %
17.11.2022 12:02 11,9 C 11,7 C 7,8 C 82 % 990,2 hPa 0,0 l/m 0 min 0 min 122 W/m 32,2 km/h (5 Bft) 96,15 %
17.11.2022 12:04 11,9 C 11,7 C 7,8 C 82 % 990,2 hPa 0,0 l/m 0 min 0 min 123 W/m 32,2 km/h (5 Bft) 95,74 %
17.11.2022 12:08 11,9 C 11,7 C 8,3 C 82 % 990,2 hPa 0,0 l/m 0 min 0 min 134 W/m 45,1 km/h (6 Bft) 96,88 %
17.11.2022 12:10 12,0 C 11,7 C 7,8 C 82 % 990,2 hPa 0,0 l/m 0 min 0 min 118 W/m 12,9 km/h (3 Bft) 93,62 %
17.11.2022 12:12 12,1 C 11,7 C 8,3 C 82 % 990,3 hPa 0,0 l/m 0 min 0 min 98 W/m 32,2 km/h (5 Bft) 95,74 %
17.11.2022 12:14 12,1 C 11,7 C 8,3 C 82 % 990,3 hPa 0,0 l/m 0 min 0 min 84 W/m 32,2 km/h (5 Bft) 97,83 %
17.11.2022 12:16 12,1 C 11,7 C 7,8 C 82 % 990,3 hPa 0,0 l/m 0 min 0 min 71 W/m 16,1 km/h (3 Bft) 97,87 %
17.11.2022 12:18 12,1 C 11,7 C 7,8 C 82 % 990,3 hPa 0,0 l/m 0 min 0 min 72 W/m 29,0 km/h (5 Bft) 97,87 %
17.11.2022 12:20 12,1 C 11,7 C 8,3 C 81 % 990,3 hPa 0,0 l/m 0 min 0 min 71 W/m 29,0 km/h (5 Bft) 95,74 %
17.11.2022 12:22 12,1 C 11,7 C 7,8 C 81 % 990,4 hPa 0,0 l/m 0 min 0 min 70 W/m 16,1 km/h (3 Bft) 97,87 %
17.11.2022 12:24 12,1 C 11,7 C 8,3 C 81 % 990,4 hPa 0,0 l/m 0 min 0 min 92 W/m 25,7 km/h (4 Bft) 95,74 %
17.11.2022 12:26 12,1 C 11,7 C 8,3 C 81 % 990,5 hPa 0,0 l/m 0 min 0 min 106 W/m 22,5 km/h (4 Bft) 95,65 %
17.11.2022 12:28 12,1 C 11,7 C 8,3 C 81 % 990,5 hPa 0,0 l/m 0 min 0 min 98 W/m 41,8 km/h (6 Bft) 95,74 %
17.11.2022 12:30 12,1 C 11,7 C 8,3 C 81 % 990,4 hPa 0,0 l/m 0 min 0 min 90 W/m 29,0 km/h (5 Bft) 93,62 %
17.11.2022 12:32 12,1 C 11,7 C 8,3 C 81 % 990,4 hPa 0,0 l/m 0 min 0 min 65 W/m 32,2 km/h (5 Bft) 95,74 %
17.11.2022 12:34 12,1 C 11,7 C 8,3 C 81 % 990,5 hPa 0,0 l/m 0 min 0 min 52 W/m 19,3 km/h (3 Bft) 97,87 %
17.11.2022 12:36 12,1 C 11,7 C 8,3 C 81 % 990,5 hPa 0,0 l/m 0 min 0 min 53 W/m 32,2 km/h (5 Bft) 97,87 %
17.11.2022 12:38 12,1 C 11,7 C 8,3 C 81 % 990,5 hPa 0,0 l/m 0 min 0 min 48 W/m 29,0 km/h (5 Bft) 95,65 %
17.11.2022 12:40 12,1 C 11,7 C 8,3 C 81 % 990,5 hPa 0,0 l/m 0 min 0 min 61 W/m 29,0 km/h (5 Bft) 97,87 %
17.11.2022 12:42 12,1 C 11,7 C 8,3 C 81 % 990,5 hPa 0,0 l/m 0 min 0 min 80 W/m 38,6 km/h (5 Bft) 97,87 %
17.11.2022 12:44 12,1 C 11,7 C 8,3 C 81 % 990,6 hPa 0,0 l/m 0 min 0 min 90 W/m 25,7 km/h (4 Bft) 95,74 %
17.11.2022 12:46 12,1 C 11,7 C 8,3 C 81 % 990,6 hPa 0,0 l/m 0 min 0 min 112 W/m 35,4 km/h (5 Bft) 97,87 %
17.11.2022 12:48 12,1 C 11,7 C 8,3 C 81 % 990,6 hPa 0,0 l/m 0 min 0 min 107 W/m 29,0 km/h (5 Bft) 97,87 %
17.11.2022 12:50 12,1 C 11,7 C 8,3 C 81 % 990,6 hPa 0,0 l/m 0 min 0 min 81 W/m 22,5 km/h (4 Bft) 100,00 %
17.11.2022 12:52 12,2 C 11,7 C 8,3 C 81 % 990,6 hPa 0,0 l/m 0 min 0 min 72 W/m 29,0 km/h (5 Bft) 97,87 %
17.11.2022 12:54 12,1 C 11,7 C 8,3 C 81 % 990,6 hPa 0,0 l/m 0 min 0 min 70 W/m 22,5 km/h (4 Bft) 97,87 %
17.11.2022 12:56 12,1 C 11,7 C 8,3 C 80 % 990,6 hPa 0,0 l/m 0 min 0 min 62 W/m 16,1 km/h (3 Bft) 100,00 %
17.11.2022 12:58 12,2 C 11,7 C 8,3 C 81 % 990,6 hPa 0,0 l/m 0 min 0 min 47 W/m 22,5 km/h (4 Bft) 97,87 %
17.11.2022 13:00 12,2 C 11,7 C 8,3 C 81 % 990,7 hPa 0,0 l/m 0 min 0 min 46 W/m 22,5 km/h (4 Bft) 100,00 %
17.11.2022 13:02 12,2 C 11,7 C 8,3 C 81 % 990,7 hPa 0,0 l/m 0 min 0 min 48 W/m 45,1 km/h (6 Bft) 95,65 %
17.11.2022 13:04 12,1 C 11,7 C 8,3 C 80 % 990,7 hPa 0,0 l/m 0 min 0 min 53 W/m 35,4 km/h (5 Bft) 97,87 %
17.11.2022 13:06 12,2 C 11,7 C 8,3 C 80 % 990,7 hPa 0,0 l/m 0 min 0 min 54 W/m 29,0 km/h (5 Bft) 97,87 %
17.11.2022 13:08 12,2 C 11,7 C 8,3 C 80 % 990,7 hPa 0,0 l/m 0 min 0 min 48 W/m 48,3 km/h (6 Bft) 95,74 %
17.11.2022 13:10 12,2 C 11,7 C 8,3 C 80 % 990,7 hPa 0,0 l/m 0 min 0 min 51 W/m 45,1 km/h (6 Bft) 97,87 %
17.11.2022 13:12 12,2 C 11,7 C 8,3 C 79 % 990,8 hPa 0,0 l/m 0 min 0 min 52 W/m 35,4 km/h (5 Bft) 95,74 %
17.11.2022 13:14 12,2 C 11,7 C 8,3 C 79 % 990,8 hPa 0,0 l/m 0 min 0 min 62 W/m 25,7 km/h (4 Bft) 93,48 %
17.11.2022 13:16 12,2 C 11,7 C 8,3 C 80 % 990,8 hPa 0,0 l/m 0 min 0 min 65 W/m 32,2 km/h (5 Bft) 95,74 %
17.11.2022 13:18 12,2 C 11,7 C 8,3 C 80 % 990,8 hPa 0,0 l/m 0 min 0 min 59 W/m 32,2 km/h (5 Bft) 95,74 %
17.11.2022 13:20 12,2 C 11,7 C 8,3 C 80 % 990,9 hPa 0,0 l/m 0 min 0 min 56 W/m 12,9 km/h (3 Bft) 95,74 %
17.11.2022 13:22 12,2 C 11,7 C 8,3 C 80 % 990,9 hPa 0,0 l/m 0 min 0 min 64 W/m 29,0 km/h (5 Bft) 95,74 %
17.11.2022 13:24 12,1 C 11,7 C 8,3 C 80 % 990,9 hPa 0,0 l/m 0 min 0 min 68 W/m 29,0 km/h (5 Bft) 95,74 %
17.11.2022 13:26 12,1 C 11,7 C 8,3 C 80 % 990,9 hPa 0,0 l/m 0 min 0 min 72 W/m 29,0 km/h (5 Bft) 95,65 %
17.11.2022 13:28 12,1 C 11,7 C 8,3 C 80 % 990,8 hPa 0,0 l/m 0 min 0 min 76 W/m 22,5 km/h (4 Bft) 94,00 %
17.11.2022 13:30 12,1 C 11,7 C 8,3 C 80 % 990,8 hPa 0,0 l/m 0 min 0 min 71 W/m 29,0 km/h (5 Bft) 91,49 %
17.11.2022 13:32 12,1 C 11,7 C 8,3 C 79 % 990,9 hPa 0,0 l/m 0 min 0 min 62 W/m 41,8 km/h (6 Bft) 93,62 %
17.11.2022 13:34 12,1 C 11,7 C 8,3 C 79 % 990,9 hPa 0,0 l/m 0 min 0 min 54 W/m 25,7 km/h (4 Bft) 95,74 %
17.11.2022 13:36 12,1 C 11,7 C 8,3 C 79 % 990,8 hPa 0,0 l/m 0 min 0 min 48 W/m 22,5 km/h (4 Bft) 93,88 %
17.11.2022 13:38 12,1 C 11,7 C 8,3 C 79 % 990,8 hPa 0,0 l/m 0 min 0 min 46 W/m 25,7 km/h (4 Bft) 95,74 %
17.11.2022 13:40 12,1 C 11,7 C 8,3 C 79 % 990,9 hPa 0,0 l/m 0 min 0 min 47 W/m 16,1 km/h (3 Bft) 95,74 %
17.11.2022 13:42 12,1 C 11,7 C 8,3 C 79 % 990,9 hPa 0,0 l/m 0 min 0 min 53 W/m 45,1 km/h (6 Bft) 95,74 %
17.11.2022 13:44 12,1 C 11,7 C 8,3 C 79 % 990,9 hPa 0,0 l/m 0 min 0 min 62 W/m 25,7 km/h (4 Bft) 93,48 %
17.11.2022 13:46 12,1 C 11,7 C 8,3 C 79 % 990,9 hPa 0,0 l/m 0 min 0 min 69 W/m 19,3 km/h (3 Bft) 93,62 %
17.11.2022 13:48 12,1 C 11,7 C 8,3 C 79 % 990,9 hPa 0,0 l/m 0 min 0 min 77 W/m 25,7 km/h (4 Bft) 97,87 %
17.11.2022 13:50 12,1 C 11,7 C 8,3 C 79 % 990,9 hPa 0,0 l/m 0 min 0 min 85 W/m 29,0 km/h (5 Bft) 97,87 %
17.11.2022 13:52 12,1 C 11,7 C 8,3 C 79 % 990,9 hPa 0,0 l/m 0 min 0 min 89 W/m 12,9 km/h (3 Bft) 97,87 %
17.11.2022 13:54 12,1 C 11,7 C 8,3 C 79 % 990,9 hPa 0,0 l/m 0 min 0 min 90 W/m 35,4 km/h (5 Bft) 100,00 %
17.11.2022 13:56 12,2 C 11,7 C 8,3 C 79 % 990,9 hPa 0,0 l/m 0 min 0 min 88 W/m 16,1 km/h (3 Bft) 100,00 %
17.11.2022 13:58 12,2 C 11,7 C 8,3 C 79 % 990,9 hPa 0,0 l/m 0 min 0 min 86 W/m 16,1 km/h (3 Bft) 100,00 %
17.11.2022 14:00 12,2 C 11,7 C 8,3 C 79 % 991,0 hPa 0,0 l/m 0 min 0 min 83 W/m 22,5 km/h (4 Bft) 97,83 %
17.11.2022 14:02 12,2 C 11,7 C 8,3 C 78 % 991,0 hPa 0,0 l/m 0 min 0 min 81 W/m 19,3 km/h (3 Bft) 97,87 %
17.11.2022 14:04 12,2 C 11,7 C 8,3 C 79 % 991,0 hPa 0,0 l/m 0 min 0 min 77 W/m 12,9 km/h (3 Bft) 100,00 %
17.11.2022 14:06 12,2 C 11,7 C 8,3 C 79 % 991,0 hPa 0,0 l/m 0 min 0 min 74 W/m 19,3 km/h (3 Bft) 100,00 %
17.11.2022 14:08 12,2 C 11,7 C 8,3 C 79 % 991,0 hPa 0,0 l/m 0 min 0 min 71 W/m 19,3 km/h (3 Bft) 100,00 %
17.11.2022 14:10 12,2 C 11,7 C 8,3 C 79 % 991,0 hPa 0,0 l/m 0 min 0 min 69 W/m 19,3 km/h (3 Bft) 54,55 %
17.11.2022 14:12 12,2 C 11,7 C 8,3 C 79 % 991,0 hPa 0,0 l/m 0 min 0 min 65 W/m 12,9 km/h (3 Bft) 100,00 %
17.11.2022 14:14 12,2 C 11,7 C 8,3 C 78 % 991,1 hPa 0,0 l/m 0 min 0 min 62 W/m 22,5 km/h (4 Bft) 100,00 %
17.11.2022 14:16 12,2 C 11,7 C 8,3 C 78 % 991,1 hPa 0,0 l/m 0 min 0 min 60 W/m 16,1 km/h (3 Bft) 100,00 %
17.11.2022 14:18 12,2 C 11,7 C 8,3 C 78 % 991,1 hPa 0,0 l/m 0 min 0 min 59 W/m 19,3 km/h (3 Bft) 100,00 %
17.11.2022 14:20 12,2 C 11,7 C 8,3 C 79 % 991,1 hPa 0,0 l/m 0 min 0 min 58 W/m 19,3 km/h (3 Bft) 100,00 %
17.11.2022 14:22 12,2 C 11,7 C 8,3 C 79 % 991,1 hPa 0,0 l/m 0 min 0 min 58 W/m 6,4 km/h (2 Bft) 100,00 %
17.11.2022 14:24 12,2 C 11,7 C 8,3 C 79 % 991,1 hPa 0,0 l/m 0 min 0 min 58 W/m 9,7 km/h (2 Bft) 97,83 %
17.11.2022 14:26 12,2 C 11,7 C 8,3 C 79 % 991,1 hPa 0,0 l/m 0 min 0 min 59 W/m 12,9 km/h (3 Bft) 100,00 %
17.11.2022 14:28 12,2 C 11,7 C 8,3 C 79 % 991,1 hPa 0,0 l/m 0 min 0 min 62 W/m 6,4 km/h (2 Bft) 100,00 %
17.11.2022 14:30 12,2 C 11,7 C 8,3 C 79 % 991,2 hPa 0,0 l/m 0 min 0 min 64 W/m 22,5 km/h (4 Bft) 100,00 %
17.11.2022 14:32 12,2 C 11,7 C 8,3 C 79 % 991,2 hPa 0,0 l/m 0 min 0 min 67 W/m 19,3 km/h (3 Bft) 100,00 %
17.11.2022 14:34 12,2 C 11,7 C 8,3 C 79 % 991,1 hPa 0,0 l/m 0 min 0 min 65 W/m 12,9 km/h (3 Bft) 100,00 %
17.11.2022 14:36 12,2 C 11,7 C 8,3 C 79 % 991,2 hPa 0,0 l/m 0 min 0 min 62 W/m 29,0 km/h (5 Bft) 100,00 %
17.11.2022 14:38 12,2 C 11,7 C 8,3 C 79 % 991,2 hPa 0,0 l/m 0 min 0 min 58 W/m 19,3 km/h (3 Bft) 100,00 %
17.11.2022 14:40 12,2 C 11,7 C 8,3 C 79 % 991,2 hPa 0,0 l/m 0 min 0 min 55 W/m 22,5 km/h (4 Bft) 100,00 %
17.11.2022 14:42 12,2 C 11,7 C 8,3 C 78 % 991,2 hPa 0,0 l/m 0 min 0 min 52 W/m 25,7 km/h (4 Bft) 97,87 %
17.11.2022 14:44 12,2 C 11,7 C 8,3 C 78 % 991,2 hPa 0,0 l/m 0 min 0 min 50 W/m 25,7 km/h (4 Bft) 100,00 %
17.11.2022 14:46 12,2 C 11,7 C 8,3 C 78 % 991,2 hPa 0,0 l/m 0 min 0 min 49 W/m 16,1 km/h (3 Bft) 97,87 %
17.11.2022 14:48 12,2 C 11,7 C 8,3 C 78 % 991,3 hPa 0,0 l/m 0 min 0 min 48 W/m 12,9 km/h (3 Bft) 97,83 %
17.11.2022 14:50 12,2 C 11,7 C 8,3 C 79 % 991,3 hPa 0,0 l/m 0 min 0 min 47 W/m 12,9 km/h (3 Bft) 100,00 %
17.11.2022 14:56 12,2 C 11,7 C 7,8 C 79 % 991,3 hPa 0,0 l/m 0 min 0 min 41 W/m 12,9 km/h (3 Bft) 97,14 %
17.11.2022 14:58 12,2 C 11,7 C 7,8 C 79 % 991,3 hPa 0,0 l/m 0 min 0 min 37 W/m 6,4 km/h (2 Bft) 97,87 %
17.11.2022 15:00 12,2 C 11,7 C 7,8 C 79 % 991,3 hPa 0,0 l/m 0 min 0 min 35 W/m 3,2 km/h (1 Bft) 95,83 %
17.11.2022 15:02 12,2 C 11,7 C 7,8 C 79 % 991,3 hPa 0,0 l/m 0 min 0 min 33 W/m 3,2 km/h (1 Bft) 95,74 %
17.11.2022 15:04 12,2 C 11,7 C 7,8 C 80 % 991,3 hPa 0,0 l/m 0 min 0 min 31 W/m 6,4 km/h (2 Bft) 97,92 %
17.11.2022 15:06 12,2 C 11,7 C 7,8 C 80 % 991,3 hPa 0,0 l/m 0 min 0 min 30 W/m 12,9 km/h (3 Bft) 97,83 %
17.11.2022 15:08 12,2 C 11,7 C 7,8 C 80 % 991,3 hPa 0,0 l/m 0 min 0 min 25 W/m 6,4 km/h (2 Bft) 97,87 %
17.11.2022 15:10 12,2 C 11,7 C 7,8 C 80 % 991,3 hPa 0,0 l/m 0 min 0 min 34 W/m 6,4 km/h (2 Bft) 97,87 %
17.11.2022 15:12 12,2 C 11,7 C 7,8 C 80 % 991,3 hPa 0,0 l/m 0 min 0 min 45 W/m 9,7 km/h (2 Bft) 97,87 %
17.11.2022 15:14 12,2 C 11,7 C 7,8 C 80 % 991,3 hPa 0,0 l/m 0 min 0 min 43 W/m 6,4 km/h (2 Bft) 95,74 %
17.11.2022 15:16 12,2 C 11,7 C 7,8 C 80 % 991,3 hPa 0,0 l/m 0 min 0 min 41 W/m 6,4 km/h (2 Bft) 93,62 %
17.11.2022 15:18 12,2 C 11,7 C 7,8 C 80 % 991,3 hPa 0,0 l/m 0 min 0 min 38 W/m 6,4 km/h (2 Bft) 95,65 %
17.11.2022 15:20 12,2 C 11,7 C 7,8 C 80 % 991,4 hPa 0,0 l/m 0 min 0 min 29 W/m 6,4 km/h (2 Bft) 95,74 %
17.11.2022 15:22 12,2 C 11,7 C 7,8 C 80 % 991,4 hPa 0,0 l/m 0 min 0 min 23 W/m 6,4 km/h (2 Bft) 95,74 %
17.11.2022 15:24 12,3 C 11,7 C 7,8 C 80 % 991,4 hPa 0,0 l/m 0 min 0 min 24 W/m 6,4 km/h (2 Bft) 95,74 %
17.11.2022 15:26 12,3 C 11,7 C 7,8 C 80 % 991,4 hPa 0,0 l/m 0 min 0 min 25 W/m 12,9 km/h (3 Bft) 95,74 %
17.11.2022 15:28 12,2 C 11,7 C 7,8 C 80 % 991,4 hPa 0,0 l/m 0 min 0 min 26 W/m 12,9 km/h (3 Bft) 95,65 %
17.11.2022 15:30 12,3 C 11,7 C 7,8 C 80 % 991,4 hPa 0,0 l/m 0 min 0 min 26 W/m 6,4 km/h (2 Bft) 95,74 %
17.11.2022 15:32 12,3 C 11,7 C 7,8 C 80 % 991,4 hPa 0,0 l/m 0 min 0 min 22 W/m 6,4 km/h (2 Bft) 95,74 %
17.11.2022 15:34 12,3 C 11,7 C 7,8 C 80 % 991,4 hPa 0,0 l/m 0 min 0 min 20 W/m 12,9 km/h (3 Bft) 91,49 %
17.11.2022 15:36 12,3 C 11,7 C 7,8 C 80 % 991,4 hPa 0,0 l/m 0 min 0 min 22 W/m 6,4 km/h (2 Bft) 97,87 %
17.11.2022 15:38 12,3 C 11,7 C 7,8 C 80 % 991,4 hPa 0,0 l/m 0 min 0 min 22 W/m 6,4 km/h (2 Bft) 97,87 %
17.11.2022 15:40 12,2 C 11,7 C 7,8 C 80 % 991,4 hPa 0,0 l/m 0 min 0 min 21 W/m 6,4 km/h (2 Bft) 97,83 %
17.11.2022 15:42 12,2 C 11,7 C 7,8 C 80 % 991,4 hPa 0,0 l/m 0 min 0 min 24 W/m 12,9 km/h (3 Bft) 95,74 %
17.11.2022 15:44 12,2 C 11,7 C 7,8 C 80 % 991,4 hPa 0,0 l/m 0 min 0 min 29 W/m 12,9 km/h (3 Bft) 95,74 %
17.11.2022 15:46 12,2 C 11,7 C 7,8 C 80 % 991,4 hPa 0,0 l/m 0 min 0 min 25 W/m 19,3 km/h (3 Bft) 97,87 %
17.11.2022 15:48 12,2 C 11,7 C 7,8 C 80 % 991,5 hPa 0,0 l/m 0 min 0 min 23 W/m 12,9 km/h (3 Bft) 97,87 %
17.11.2022 15:50 12,2 C 11,7 C 7,8 C 80 % 991,5 hPa 0,0 l/m 0 min 0 min 29 W/m 9,7 km/h (2 Bft) 97,87 %
17.11.2022 15:52 12,2 C 11,7 C 7,8 C 80 % 991,5 hPa 0,0 l/m 0 min 0 min 31 W/m 9,7 km/h (2 Bft) 95,65 %
17.11.2022 15:54 12,2 C 11,7 C 7,8 C 80 % 991,5 hPa 0,0 l/m 0 min 0 min 27 W/m 6,4 km/h (2 Bft) 95,74 %
17.11.2022 15:56 12,2 C 11,7 C 7,8 C 80 % 991,5 hPa 0,0 l/m 0 min 0 min 23 W/m 6,4 km/h (2 Bft) 97,87 %
17.11.2022 15:58 12,2 C 11,7 C 7,8 C 80 % 991,5 hPa 0,0 l/m 0 min 0 min 20 W/m 12,9 km/h (3 Bft) 97,87 %
17.11.2022 16:00 12,2 C 11,7 C 7,8 C 81 % 991,5 hPa 0,0 l/m 0 min 0 min 20 W/m 6,4 km/h (2 Bft) 97,87 %
17.11.2022 16:02 12,2 C 11,7 C 7,8 C 80 % 991,6 hPa 0,0 l/m 0 min 0 min 21 W/m 6,4 km/h (2 Bft) 97,87 %
17.11.2022 16:04 12,2 C 11,7 C 7,8 C 80 % 991,6 hPa 0,0 l/m 0 min 0 min 20 W/m 9,7 km/h (2 Bft) 97,83 %
17.11.2022 16:06 12,2 C 11,7 C 7,8 C 80 % 991,7 hPa 0,0 l/m 0 min 0 min 19 W/m 6,4 km/h (2 Bft) 97,87 %
17.11.2022 16:08 12,2 C 11,7 C 7,8 C 80 % 991,6 hPa 0,0 l/m 0 min 0 min 18 W/m 9,7 km/h (2 Bft) 97,87 %
17.11.2022 16:10 12,2 C 11,7 C 7,8 C 80 % 991,7 hPa 0,0 l/m 0 min 0 min 17 W/m 6,4 km/h (2 Bft) 97,87 %
17.11.2022 16:12 12,2 C 11,1 C 7,8 C 80 % 991,7 hPa 0,0 l/m 0 min 0 min 15 W/m 6,4 km/h (2 Bft) 97,87 %
17.11.2022 16:14 12,1 C 11,1 C 7,8 C 80 % 991,7 hPa 0,0 l/m 0 min 0 min 14 W/m 12,9 km/h (3 Bft) 97,87 %
17.11.2022 16:16 12,1 C 11,1 C 7,8 C 80 % 991,7 hPa 0,0 l/m 0 min 0 min 13 W/m 6,4 km/h (2 Bft) 97,83 %
17.11.2022 16:18 12,1 C 11,1 C 7,8 C 81 % 991,7 hPa 0,0 l/m 0 min 0 min 12 W/m 9,7 km/h (2 Bft) 95,74 %
17.11.2022 16:20 12,1 C 11,7 C 7,8 C 80 % 991,7 hPa 0,0 l/m 0 min 0 min 12 W/m 9,7 km/h (2 Bft) 97,14 %
17.11.2022 16:22 12,1 C 11,1 C 7,8 C 81 % 991,7 hPa 0,0 l/m 0 min 0 min 10 W/m 3,2 km/h (1 Bft) 95,92 %
17.11.2022 16:24 12,1 C 11,1 C 7,8 C 81 % 991,8 hPa 0,0 l/m 0 min 0 min 9 W/m 12,9 km/h (3 Bft) 97,87 %
17.11.2022 16:26 12,1 C 11,1 C 7,8 C 81 % 991,8 hPa 0,0 l/m 0 min 0 min 7 W/m 3,2 km/h (1 Bft) 95,74 %
17.11.2022 16:28 12,1 C 11,1 C 7,8 C 81 % 991,8 hPa 0,0 l/m 0 min 0 min 3 W/m 6,4 km/h (2 Bft) 95,74 %
17.11.2022 16:30 12,1 C 11,1 C 7,8 C 81 % 991,9 hPa 0,0 l/m 0 min 0 min 0 W/m 3,2 km/h (1 Bft) 97,87 %
17.11.2022 16:32 12,1 C 11,1 C 7,8 C 81 % 991,9 hPa 0,0 l/m 0 min 0 min 5 W/m 3,2 km/h (1 Bft) 97,83 %
17.11.2022 16:34 12,1 C 11,1 C 7,8 C 81 % 991,9 hPa 0,0 l/m 0 min 0 min 1 W/m 12,9 km/h (3 Bft) 97,87 %
17.11.2022 16:36 12,1 C 11,1 C 7,8 C 81 % 991,9 hPa 0,0 l/m 0 min 0 min 0 W/m 3,2 km/h (1 Bft) 97,87 %
17.11.2022 16:38 12,1 C 11,1 C 7,8 C 81 % 991,9 hPa 0,0 l/m 0 min 0 min 0 W/m 3,2 km/h (1 Bft) 55,56 %
17.11.2022 16:40 12,0 C 11,1 C 7,8 C 81 % 991,9 hPa 0,0 l/m 0 min 0 min 0 W/m 9,7 km/h (2 Bft) 100,00 %
17.11.2022 16:42 12,0 C 11,1 C 7,8 C 81 % 991,9 hPa 0,0 l/m 0 min 0 min 0 W/m 9,7 km/h (2 Bft) 97,87 %
17.11.2022 16:44 12,0 C 11,1 C 7,8 C 81 % 991,9 hPa 0,0 l/m 0 min 0 min 0 W/m 16,1 km/h (3 Bft) 100,00 %
17.11.2022 16:46 12,0 C 11,1 C 7,8 C 81 % 992,0 hPa 0,0 l/m 0 min 0 min 0 W/m 6,4 km/h (2 Bft) 100,00 %
17.11.2022 16:48 12,0 C 11,1 C 7,8 C 81 % 992,1 hPa 0,0 l/m 0 min 0 min 0 W/m 16,1 km/h (3 Bft) 97,87 %
17.11.2022 16:50 12,0 C 11,1 C 7,8 C 81 % 992,0 hPa 0,0 l/m 0 min 0 min 0 W/m 25,7 km/h (4 Bft) 100,00 %
17.11.2022 16:52 12,0 C 11,1 C 7,8 C 81 % 992,1 hPa 0,0 l/m 0 min 0 min 0 W/m 12,9 km/h (3 Bft) 100,00 %
17.11.2022 16:54 12,0 C 11,1 C 7,8 C 81 % 992,1 hPa 0,0 l/m 0 min 0 min 0 W/m 12,9 km/h (3 Bft) 100,00 %
17.11.2022 16:56 12,0 C 11,1 C 7,8 C 81 % 992,0 hPa 0,0 l/m 0 min 0 min 0 W/m 12,9 km/h (3 Bft) 97,83 %
17.11.2022 16:58 12,0 C 11,1 C 7,8 C 81 % 992,1 hPa 0,0 l/m 0 min 0 min 0 W/m 12,9 km/h (3 Bft) 93,62 %
17.11.2022 17:00 12,0 C 11,1 C 7,8 C 81 % 992,1 hPa 0,0 l/m 0 min 0 min 0 W/m 12,9 km/h (3 Bft) 100,00 %
17.11.2022 17:02 12,0 C 11,1 C 7,8 C 81 % 992,1 hPa 0,0 l/m 0 min 0 min 0 W/m 6,4 km/h (2 Bft) 100,00 %
17.11.2022 17:04 12,0 C 11,1 C 7,8 C 81 % 992,2 hPa 0,0 l/m 0 min 0 min 0 W/m 12,9 km/h (3 Bft) 100,00 %
17.11.2022 17:06 12,0 C 11,1 C 7,8 C 81 % 992,2 hPa 0,0 l/m 0 min 0 min 0 W/m 12,9 km/h (3 Bft) 95,74 %
17.11.2022 17:08 12,0 C 11,1 C 7,8 C 81 % 992,2 hPa 0,0 l/m 0 min 0 min 0 W/m 22,5 km/h (4 Bft) 100,00 %
17.11.2022 17:10 12,0 C 11,1 C 7,8 C 81 % 992,2 hPa 0,0 l/m 0 min 0 min 0 W/m 16,1 km/h (3 Bft) 97,87 %
17.11.2022 17:12 12,0 C 11,1 C 7,8 C 81 % 992,1 hPa 0,0 l/m 0 min 0 min 0 W/m 12,9 km/h (3 Bft) 100,00 %
17.11.2022 17:14 12,0 C 11,1 C 7,8 C 81 % 992,2 hPa 0,0 l/m 0 min 0 min 0 W/m 6,4 km/h (2 Bft) 100,00 %
17.11.2022 17:16 12,0 C 11,1 C 7,8 C 81 % 992,2 hPa 0,0 l/m 0 min 0 min 0 W/m 16,1 km/h (3 Bft) 97,87 %
17.11.2022 17:18 11,9 C 11,1 C 7,8 C 81 % 992,2 hPa 0,0 l/m 0 min 0 min 0 W/m 19,3 km/h (3 Bft) 97,83 %
17.11.2022 17:20 11,9 C 11,1 C 7,8 C 81 % 992,2 hPa 0,0 l/m 0 min 0 min 0 W/m 6,4 km/h (2 Bft) 97,87 %
17.11.2022 17:22 11,9 C 11,1 C 7,8 C 81 % 992,2 hPa 0,0 l/m 0 min 0 min 0 W/m 16,1 km/h (3 Bft) 97,87 %
17.11.2022 17:24 11,9 C 11,1 C 7,8 C 80 % 992,2 hPa 0,0 l/m 0 min 0 min 0 W/m 16,1 km/h (3 Bft) 97,87 %
17.11.2022 17:26 11,9 C 11,1 C 7,8 C 80 % 992,3 hPa 0,0 l/m 0 min 0 min 0 W/m 9,7 km/h (2 Bft) 97,87 %
17.11.2022 17:28 11,9 C 11,1 C 7,8 C 80 % 992,3 hPa 0,0 l/m 0 min 0 min 0 W/m 19,3 km/h (3 Bft) 97,87 %
17.11.2022 17:30 11,9 C 11,1 C 7,2 C 80 % 992,3 hPa 0,0 l/m 0 min 0 min 0 W/m 12,9 km/h (3 Bft) 97,83 %
17.11.2022 17:32 11,8 C 10,6 C 7,2 C 80 % 992,4 hPa 0,0 l/m 0 min 0 min 0 W/m 6,4 km/h (2 Bft) 95,74 %
17.11.2022 17:34 11,8 C 10,6 C 7,2 C 80 % 992,4 hPa 0,0 l/m 0 min 0 min 0 W/m 3,2 km/h (1 Bft) 93,62 %
17.11.2022 17:36 11,8 C 10,6 C 7,2 C 80 % 992,4 hPa 0,0 l/m 0 min 0 min 0 W/m 3,2 km/h (1 Bft) 93,62 %
17.11.2022 17:38 11,8 C 10,6 C 7,2 C 81 % 992,4 hPa 0,0 l/m 0 min 0 min 0 W/m 6,4 km/h (2 Bft) 91,49 %
17.11.2022 17:40 11,8 C 10,6 C 7,2 C 81 % 992,4 hPa 0,0 l/m 0 min 0 min 0 W/m 6,4 km/h (2 Bft) 95,74 %
17.11.2022 17:42 11,7 C 10,6 C 7,2 C 81 % 992,4 hPa 0,0 l/m 0 min 0 min 0 W/m 6,4 km/h (2 Bft) 95,65 %
17.11.2022 17:44 11,7 C 10,6 C 7,2 C 81 % 992,4 hPa 0,0 l/m 0 min 0 min 0 W/m 6,4 km/h (2 Bft) 93,62 %
17.11.2022 17:46 11,7 C 10,6 C 7,2 C 81 % 992,5 hPa 0,0 l/m 0 min 0 min 0 W/m 6,4 km/h (2 Bft) 95,92 %
17.11.2022 17:48 11,6 C 10,6 C 7,2 C 81 % 992,5 hPa 0,0 l/m 0 min 0 min 0 W/m 12,9 km/h (3 Bft) 97,87 %
17.11.2022 17:50 11,6 C 10,6 C 7,2 C 81 % 992,6 hPa 0,0 l/m 0 min 0 min 0 W/m 3,2 km/h (1 Bft) 97,87 %
17.11.2022 17:52 11,6 C 10,6 C 7,2 C 81 % 992,6 hPa 0,0 l/m 0 min 0 min 0 W/m 3,2 km/h (1 Bft) 95,65 %
17.11.2022 17:54 11,6 C 10,6 C 7,2 C 82 % 992,5 hPa 0,0 l/m 0 min 0 min 0 W/m 6,4 km/h (2 Bft) 97,22 %
17.11.2022 17:56 11,5 C 10,0 C 6,7 C 82 % 992,6 hPa 0,0 l/m 0 min 0 min 0 W/m 9,7 km/h (2 Bft) 97,83 %
17.11.2022 17:58 11,4 C 10,0 C 6,7 C 82 % 992,5 hPa 0,0 l/m 0 min 0 min 0 W/m 12,9 km/h (3 Bft) 96,61 %
17.11.2022 18:00 11,4 C 10,0 C 7,2 C 82 % 992,6 hPa 0,0 l/m 0 min 0 min 0 W/m 6,4 km/h (2 Bft) 97,87 %
17.11.2022 18:02 11,3 C 10,0 C 6,7 C 82 % 992,6 hPa 0,0 l/m 0 min 0 min 0 W/m 9,7 km/h (2 Bft) 95,74 %
17.11.2022 18:04 11,3 C 10,0 C 6,7 C 82 % 992,7 hPa 0,0 l/m 0 min 0 min 0 W/m 12,9 km/h (3 Bft) 97,14 %
17.11.2022 18:08 11,3 C 10,0 C 6,7 C 83 % 992,7 hPa 0,0 l/m 0 min 0 min 0 W/m 12,9 km/h (3 Bft) 97,92 %
17.11.2022 18:10 11,2 C 10,0 C 6,7 C 83 % 992,7 hPa 0,0 l/m 0 min 0 min 0 W/m 6,4 km/h (2 Bft) 97,87 %
17.11.2022 18:12 11,2 C 10,0 C 6,7 C 83 % 992,7 hPa 0,0 l/m 0 min 0 min 0 W/m 6,4 km/h (2 Bft) 97,83 %
17.11.2022 18:14 11,2 C 10,0 C 6,7 C 83 % 992,7 hPa 0,0 l/m 0 min 0 min 0 W/m 3,2 km/h (1 Bft) 97,87 %
17.11.2022 18:16 11,2 C 10,0 C 6,7 C 83 % 992,7 hPa 0,0 l/m 0 min 0 min 0 W/m 3,2 km/h (1 Bft) 95,74 %
17.11.2022 18:18 11,1 C 10,0 C 6,7 C 83 % 992,7 hPa 0,0 l/m 0 min 0 min 0 W/m 6,4 km/h (2 Bft) 97,87 %
17.11.2022 18:20 11,1 C 10,0 C 6,7 C 83 % 992,7 hPa 0,0 l/m 0 min 0 min 0 W/m 12,9 km/h (3 Bft) 95,74 %
17.11.2022 18:22 11,1 C 10,0 C 6,7 C 83 % 992,7 hPa 0,0 l/m 0 min 0 min 0 W/m 6,4 km/h (2 Bft) 97,87 %
17.11.2022 18:24 11,1 C 10,0 C 6,7 C 83 % 992,7 hPa 0,0 l/m 0 min 0 min 0 W/m 6,4 km/h (2 Bft) 97,83 %
17.11.2022 18:26 11,1 C 10,0 C 6,7 C 83 % 992,7 hPa 0,0 l/m 0 min 0 min 0 W/m 3,2 km/h (1 Bft) 97,87 %
17.11.2022 18:28 11,0 C 10,0 C 6,7 C 83 % 992,7 hPa 0,0 l/m 0 min 0 min 0 W/m 6,4 km/h (2 Bft) 100,00 %
17.11.2022 18:30 11,0 C 10,0 C 6,7 C 83 % 992,8 hPa 0,0 l/m 0 min 0 min 0 W/m 12,9 km/h (3 Bft) 93,62 %
17.11.2022 18:32 10,9 C 10,0 C 6,7 C 83 % 992,8 hPa 0,0 l/m 0 min 0 min 0 W/m 6,4 km/h (2 Bft) 97,87 %
17.11.2022 18:34 10,9 C 10,0 C 6,7 C 83 % 992,8 hPa 0,0 l/m 0 min 0 min 0 W/m 6,4 km/h (2 Bft) 97,87 %
17.11.2022 18:36 10,9 C 10,0 C 6,7 C 83 % 992,8 hPa 0,0 l/m 0 min 0 min 0 W/m 6,4 km/h (2 Bft) 95,65 %
17.11.2022 18:38 10,9 C 10,0 C 6,7 C 84 % 992,9 hPa 0,0 l/m 0 min 0 min 0 W/m 3,2 km/h (1 Bft) 97,87 %
17.11.2022 18:40 10,9 C 10,0 C 6,7 C 84 % 992,9 hPa 0,0 l/m 0 min 0 min 0 W/m 16,1 km/h (3 Bft) 97,87 %
17.11.2022 18:42 10,9 C 10,0 C 6,7 C 84 % 992,9 hPa 0,0 l/m 0 min 0 min 0 W/m 3,2 km/h (1 Bft) 91,49 %
17.11.2022 18:44 10,9 C 10,0 C 6,7 C 84 % 992,9 hPa 0,0 l/m 0 min 0 min 0 W/m 3,2 km/h (1 Bft) 89,36 %
17.11.2022 18:46 10,8 C 10,0 C 6,7 C 84 % 992,9 hPa 0,0 l/m 0 min 0 min 0 W/m 6,4 km/h (2 Bft) 60,47 %
17.11.2022 18:48 10,8 C 10,0 C 6,7 C 84 % 992,9 hPa 0,0 l/m 0 min 0 min 0 W/m 6,4 km/h (2 Bft) 95,74 %
17.11.2022 18:50 10,8 C 10,0 C 6,7 C 84 % 993,0 hPa 0,0 l/m 0 min 0 min 0 W/m 3,2 km/h (1 Bft) 97,87 %
17.11.2022 18:52 10,8 C 10,0 C 6,7 C 84 % 993,0 hPa 0,0 l/m 0 min 0 min 0 W/m 3,2 km/h (1 Bft) 98,18 %
17.11.2022 18:54 10,8 C 10,0 C 6,7 C 84 % 993,1 hPa 0,0 l/m 0 min 0 min 0 W/m 3,2 km/h (1 Bft) 95,74 %
17.11.2022 18:56 10,8 C 10,0 C 6,7 C 84 % 993,1 hPa 0,0 l/m 0 min 0 min 0 W/m 9,7 km/h (2 Bft) 95,74 %
17.11.2022 18:58 10,8 C 10,0 C 6,7 C 84 % 993,1 hPa 0,0 l/m 0 min 0 min 0 W/m 3,2 km/h (1 Bft) 97,87 %
17.11.2022 19:00 10,8 C 10,0 C 6,7 C 84 % 993,2 hPa 0,0 l/m 0 min 0 min 0 W/m 6,4 km/h (2 Bft) 93,62 %
17.11.2022 19:02 10,7 C 10,0 C 6,7 C 84 % 993,2 hPa 0,0 l/m 0 min 0 min 0 W/m 6,4 km/h (2 Bft) 95,74 %
17.11.2022 19:04 10,7 C 10,0 C 6,7 C 84 % 993,2 hPa 0,0 l/m 0 min 0 min 0 W/m 3,2 km/h (1 Bft) 97,83 %
17.11.2022 19:06 10,7 C 10,0 C 6,7 C 84 % 993,3 hPa 0,0 l/m 0 min 0 min 0 W/m 6,4 km/h (2 Bft) 95,74 %
17.11.2022 19:08 10,7 C 10,0 C 6,7 C 84 % 993,3 hPa 0,0 l/m 0 min 0 min 0 W/m 9,7 km/h (2 Bft) 89,36 %
17.11.2022 19:10 10,7 C 10,0 C 6,7 C 84 % 993,3 hPa 0,0 l/m 0 min 0 min 0 W/m 6,4 km/h (2 Bft) 95,74 %
17.11.2022 19:12 10,7 C 10,0 C 6,7 C 84 % 993,3 hPa 0,0 l/m 0 min 0 min 0 W/m 6,4 km/h (2 Bft) 93,62 %
17.11.2022 19:14 10,6 C 9,4 C 6,7 C 84 % 993,3 hPa 0,0 l/m 0 min 0 min 0 W/m 9,7 km/h (2 Bft) 93,62 %
17.11.2022 19:16 10,6 C 9,4 C 6,7 C 84 % 993,3 hPa 0,0 l/m 0 min 0 min 0 W/m 9,7 km/h (2 Bft) 100,00 %
17.11.2022 19:18 10,6 C 9,4 C 6,7 C 85 % 993,3 hPa 0,0 l/m 0 min 0 min 0 W/m 12,9 km/h (3 Bft) 93,62 %
17.11.2022 19:20 10,6 C 9,4 C 6,7 C 85 % 993,3 hPa 0,0 l/m 0 min 0 min 0 W/m 6,4 km/h (2 Bft) 97,87 %
17.11.2022 19:22 10,6 C 9,4 C 6,7 C 85 % 993,3 hPa 0,0 l/m 0 min 0 min 0 W/m 3,2 km/h (1 Bft) 97,87 %
17.11.2022 19:24 10,6 C 9,4 C 6,7 C 85 % 993,4 hPa 0,0 l/m 0 min 0 min 0 W/m 6,4 km/h (2 Bft) 95,74 %
17.11.2022 19:26 10,6 C 9,4 C 6,7 C 85 % 993,4 hPa 0,0 l/m 0 min 0 min 0 W/m 6,4 km/h (2 Bft) 97,87 %
17.11.2022 19:28 10,5 C 9,4 C 6,7 C 85 % 993,4 hPa 0,0 l/m 0 min 0 min 0 W/m 6,4 km/h (2 Bft) 97,83 %
17.11.2022 19:30 10,5 C 9,4 C 6,7 C 85 % 993,5 hPa 0,0 l/m 0 min 0 min 0 W/m 3,2 km/h (1 Bft) 95,74 %
17.11.2022 19:32 10,5 C 9,4 C 6,7 C 85 % 993,5 hPa 0,0 l/m 0 min 0 min 0 W/m 6,4 km/h (2 Bft) 97,87 %
17.11.2022 19:34 10,5 C 9,4 C 6,7 C 85 % 993,5 hPa 0,0 l/m 0 min 0 min 0 W/m 6,4 km/h (2 Bft) 97,87 %
17.11.2022 19:36 10,5 C 9,4 C 6,7 C 85 % 993,5 hPa 0,0 l/m 0 min 0 min 0 W/m 6,4 km/h (2 Bft) 95,74 %
17.11.2022 19:38 10,5 C 9,4 C 6,7 C 85 % 993,5 hPa 0,0 l/m 0 min 0 min 0 W/m 3,2 km/h (1 Bft) 97,87 %
17.11.2022 19:40 10,4 C 9,4 C 6,7 C 85 % 993,5 hPa 0,0 l/m 0 min 0 min 0 W/m 6,4 km/h (2 Bft) 100,00 %
17.11.2022 19:42 10,4 C 9,4 C 6,7 C 85 % 993,5 hPa 0,0 l/m 0 min 0 min 0 W/m 3,2 km/h (1 Bft) 97,87 %
17.11.2022 19:44 10,4 C 9,4 C 6,1 C 85 % 993,5 hPa 0,0 l/m 0 min 0 min 0 W/m 12,9 km/h (3 Bft) 100,00 %
17.11.2022 19:46 10,4 C 9,4 C 6,1 C 85 % 993,6 hPa 0,0 l/m 0 min 0 min 0 W/m 6,4 km/h (2 Bft) 100,00 %
17.11.2022 19:48 10,4 C 9,4 C 6,1 C 85 % 993,5 hPa 0,0 l/m 0 min 0 min 0 W/m 6,4 km/h (2 Bft) 100,00 %
17.11.2022 19:50 10,3 C 9,4 C 6,1 C 85 % 993,5 hPa 0,0 l/m 0 min 0 min 0 W/m 6,4 km/h (2 Bft) 100,00 %
17.11.2022 19:52 10,3 C 9,4 C 6,1 C 85 % 993,5 hPa 0,0 l/m 0 min 0 min 0 W/m 6,4 km/h (2 Bft) 97,83 %
17.11.2022 19:54 10,3 C 9,4 C 6,1 C 85 % 993,6 hPa 0,0 l/m 0 min 0 min 0 W/m 6,4 km/h (2 Bft) 100,00 %
17.11.2022 19:56 10,3 C 8,9 C 6,1 C 85 % 993,5 hPa 0,0 l/m 0 min 0 min 0 W/m 6,4 km/h (2 Bft) 100,00 %
17.11.2022 19:58 10,2 C 8,9 C 6,1 C 85 % 993,6 hPa 0,0 l/m 0 min 0 min 0 W/m 3,2 km/h (1 Bft) 100,00 %
17.11.2022 20:00 10,2 C 8,9 C 6,1 C 85 % 993,6 hPa 0,0 l/m 0 min 0 min 0 W/m 3,2 km/h (1 Bft) 97,87 %
17.11.2022 20:02 10,2 C 8,9 C 6,1 C 86 % 993,6 hPa 0,0 l/m 0 min 0 min 0 W/m 3,2 km/h (1 Bft) 95,74 %
17.11.2022 20:04 10,1 C 8,9 C 6,1 C 86 % 993,6 hPa 0,0 l/m 0 min 0 min 0 W/m 6,4 km/h (2 Bft) 100,00 %
17.11.2022 20:06 10,1 C 8,9 C 6,1 C 86 % 993,6 hPa 0,0 l/m 0 min 0 min 0 W/m 6,4 km/h (2 Bft) 100,00 %
17.11.2022 20:08 10,1 C 8,9 C 5,6 C 86 % 993,7 hPa 0,0 l/m 0 min 0 min 0 W/m 6,4 km/h (2 Bft) 100,00 %
17.11.2022 20:10 10,1 C 8,9 C 5,6 C 86 % 993,6 hPa 0,0 l/m 0 min 0 min 0 W/m 6,4 km/h (2 Bft) 100,00 %
17.11.2022 20:12 10,0 C 8,9 C 5,6 C 86 % 993,7 hPa 0,0 l/m 0 min 0 min 0 W/m 12,9 km/h (3 Bft) 97,87 %
17.11.2022 20:14 9,9 C 8,9 C 5,6 C 86 % 993,7 hPa 0,0 l/m 0 min 0 min 0 W/m 6,4 km/h (2 Bft) 100,00 %
17.11.2022 20:16 9,9 C 8,9 C 5,6 C 87 % 993,7 hPa 0,0 l/m 0 min 0 min 0 W/m 3,2 km/h (1 Bft) 100,00 %
17.11.2022 20:18 9,9 C 8,9 C 5,6 C 87 % 993,8 hPa 0,0 l/m 0 min 0 min 0 W/m 6,4 km/h (2 Bft) 100,00 %
17.11.2022 20:20 9,9 C 8,9 C 5,6 C 87 % 993,8 hPa 0,0 l/m 0 min 0 min 0 W/m 6,4 km/h (2 Bft) 97,87 %
17.11.2022 20:22 9,8 C 8,9 C 5,6 C 87 % 993,8 hPa 0,0 l/m 0 min 0 min 0 W/m 3,2 km/h (1 Bft) 100,00 %
17.11.2022 20:24 9,8 C 8,9 C 5,6 C 87 % 993,8 hPa 0,0 l/m 0 min 0 min 0 W/m 12,9 km/h (3 Bft) 100,00 %
17.11.2022 20:26 9,8 C 8,9 C 5,6 C 87 % 993,9 hPa 0,0 l/m 0 min 0 min 0 W/m 6,4 km/h (2 Bft) 100,00 %
17.11.2022 20:28 9,8 C 8,9 C 5,6 C 87 % 993,9 hPa 0,0 l/m 0 min 0 min 0 W/m 3,2 km/h (1 Bft) 100,00 %
17.11.2022 20:30 9,8 C 8,9 C 5,6 C 87 % 994,0 hPa 0,0 l/m 0 min 0 min 0 W/m 6,4 km/h (2 Bft) 97,87 %
17.11.2022 20:32 9,8 C 8,9 C 5,6 C 87 % 994,0 hPa 0,0 l/m 0 min 0 min 0 W/m 3,2 km/h (1 Bft) 100,00 %
17.11.2022 20:34 9,7 C 8,3 C 5,6 C 88 % 994,0 hPa 0,0 l/m 0 min 0 min 0 W/m 3,2 km/h (1 Bft) 97,87 %
17.11.2022 20:36 9,7 C 8,3 C 5,6 C 88 % 994,0 hPa 0,0 l/m 0 min 0 min 0 W/m 6,4 km/h (2 Bft) 97,87 %
17.11.2022 20:38 9,7 C 8,3 C 5,6 C 88 % 994,1 hPa 0,0 l/m 0 min 0 min 0 W/m 6,4 km/h (2 Bft) 97,87 %
17.11.2022 20:40 9,7 C 8,3 C 5,6 C 88 % 994,1 hPa 0,0 l/m 0 min 0 min 0 W/m 6,4 km/h (2 Bft) 100,00 %
17.11.2022 20:42 9,7 C 8,3 C 5,6 C 88 % 994,1 hPa 0,0 l/m 0 min 0 min 0 W/m 3,2 km/h (1 Bft) 97,87 %
17.11.2022 20:44 9,6 C 8,3 C 5,6 C 88 % 994,1 hPa 0,0 l/m 0 min 0 min 0 W/m 3,2 km/h (1 Bft) 97,87 %
17.11.2022 20:46 9,6 C 8,3 C 5,6 C 88 % 994,1 hPa 0,0 l/m 0 min 0 min 0 W/m 3,2 km/h (1 Bft) 97,87 %
17.11.2022 20:48 9,6 C 8,3 C 5,6 C 88 % 994,1 hPa 0,0 l/m 0 min 0 min 0 W/m 3,2 km/h (1 Bft) 95,74 %
17.11.2022 20:50 9,6 C 8,3 C 5,6 C 88 % 994,1 hPa 0,0 l/m 0 min 0 min 0 W/m 6,4 km/h (2 Bft) 95,74 %
17.11.2022 20:52 9,6 C 8,3 C 5,6 C 89 % 994,2 hPa 0,0 l/m 0 min 0 min 0 W/m 3,2 km/h (1 Bft) 95,65 %
17.11.2022 20:54 9,6 C 8,3 C 5,6 C 89 % 994,2 hPa 0,0 l/m 0 min 0 min 0 W/m 6,4 km/h (2 Bft) 97,87 %
17.11.2022 20:56 9,5 C 8,3 C 5,6 C 89 % 994,2 hPa 0,0 l/m 0 min 0 min 0 W/m 6,4 km/h (2 Bft) 95,74 %
17.11.2022 20:58 9,5 C 8,3 C 5,6 C 89 % 994,3 hPa 0,0 l/m 0 min 0 min 0 W/m 6,4 km/h (2 Bft) 95,74 %
17.11.2022 21:00 9,5 C 8,3 C 5,6 C 89 % 994,3 hPa 0,0 l/m 0 min 0 min 0 W/m 6,4 km/h (2 Bft) 95,74 %
17.11.2022 21:02 9,5 C 8,3 C 5,6 C 89 % 994,4 hPa 0,0 l/m 0 min 0 min 0 W/m 6,4 km/h (2 Bft) 95,74 %
17.11.2022 21:04 9,4 C 8,3 C 5,6 C 89 % 994,4 hPa 0,0 l/m 0 min 0 min 0 W/m 3,2 km/h (1 Bft) 95,65 %
17.11.2022 21:06 9,4 C 8,3 C 5,6 C 89 % 994,4 hPa 0,0 l/m 0 min 0 min 0 W/m 3,2 km/h (1 Bft) 89,36 %
17.11.2022 21:08 9,4 C 8,3 C 5,6 C 89 % 994,4 hPa 0,0 l/m 0 min 0 min 0 W/m 3,2 km/h (1 Bft) 93,62 %
17.11.2022 21:10 9,4 C 8,3 C 5,6 C 89 % 994,4 hPa 0,0 l/m 0 min 0 min 0 W/m 3,2 km/h (1 Bft) 91,49 %
17.11.2022 21:12 9,4 C 8,3 C 5,6 C 89 % 994,4 hPa 0,0 l/m 0 min 0 min 0 W/m 3,2 km/h (1 Bft) 91,49 %
17.11.2022 21:14 9,4 C 8,3 C 5,6 C 89 % 994,4 hPa 0,0 l/m 0 min 0 min 0 W/m 3,2 km/h (1 Bft) 93,62 %
17.11.2022 21:16 9,4 C 8,3 C 5,6 C 89 % 994,4 hPa 0,0 l/m 0 min 0 min 0 W/m 3,2 km/h (1 Bft) 93,48 %
17.11.2022 21:18 9,4 C 8,3 C 5,6 C 89 % 994,5 hPa 0,0 l/m 0 min 0 min 0 W/m 3,2 km/h (1 Bft) 91,49 %
17.11.2022 21:20 9,3 C 8,3 C 5,6 C 89 % 994,5 hPa 0,0 l/m 0 min 0 min 0 W/m 3,2 km/h (1 Bft) 93,62 %
17.11.2022 21:22 9,3 C 8,3 C 5,6 C 90 % 994,5 hPa 0,0 l/m 0 min 0 min 0 W/m 6,4 km/h (2 Bft) 89,36 %
17.11.2022 21:24 9,3 C 8,3 C 5,6 C 90 % 994,5 hPa 0,0 l/m 0 min 0 min 0 W/m 6,4 km/h (2 Bft) 95,74 %
17.11.2022 21:26 9,3 C 8,3 C 5,6 C 90 % 994,6 hPa 0,0 l/m 0 min 0 min 0 W/m 6,4 km/h (2 Bft) 93,62 %
17.11.2022 21:28 9,3 C 8,3 C 5,6 C 90 % 994,6 hPa 0,0 l/m 0 min 0 min 0 W/m 3,2 km/h (1 Bft) 95,65 %
17.11.2022 21:30 9,3 C 8,3 C 5,6 C 90 % 994,6 hPa 0,0 l/m 0 min 0 min 0 W/m 3,2 km/h (1 Bft) 97,87 %
17.11.2022 21:32 9,3 C 8,3 C 5,6 C 90 % 994,7 hPa 0,0 l/m 0 min 0 min 0 W/m 12,9 km/h (3 Bft) 95,74 %
17.11.2022 21:34 9,2 C 8,3 C 5,6 C 90 % 994,7 hPa 0,0 l/m 0 min 0 min 0 W/m 6,4 km/h (2 Bft) 93,62 %
17.11.2022 21:36 9,2 C 8,3 C 5,6 C 90 % 994,8 hPa 0,0 l/m 0 min 0 min 0 W/m 3,2 km/h (1 Bft) 97,87 %
17.11.2022 21:38 9,2 C 8,3 C 5,6 C 90 % 994,8 hPa 0,0 l/m 0 min 0 min 0 W/m 6,4 km/h (2 Bft) 97,87 %
17.11.2022 21:40 9,2 C 8,3 C 5,6 C 90 % 994,8 hPa 0,0 l/m 0 min 0 min 0 W/m 6,4 km/h (2 Bft) 95,74 %
17.11.2022 21:42 9,2 C 7,8 C 5,0 C 90 % 994,9 hPa 0,0 l/m 0 min 0 min 0 W/m 3,2 km/h (1 Bft) 97,83 %
17.11.2022 21:44 9,1 C 7,8 C 5,0 C 90 % 994,9 hPa 0,0 l/m 0 min 0 min 0 W/m 6,4 km/h (2 Bft) 97,87 %
17.11.2022 21:46 9,1 C 7,8 C 5,0 C 90 % 994,9 hPa 0,0 l/m 0 min 0 min 0 W/m 6,4 km/h (2 Bft) 95,74 %
17.11.2022 21:48 9,1 C 7,8 C 5,0 C 90 % 994,9 hPa 0,0 l/m 0 min 0 min 0 W/m 3,2 km/h (1 Bft) 97,87 %
17.11.2022 21:50 9,1 C 7,8 C 5,0 C 90 % 994,9 hPa 0,0 l/m 0 min 0 min 0 W/m 6,4 km/h (2 Bft) 97,87 %
17.11.2022 21:52 9,0 C 7,8 C 5,0 C 90 % 994,9 hPa 0,0 l/m 0 min 0 min 0 W/m 3,2 km/h (1 Bft) 100,00 %
17.11.2022 21:54 9,0 C 7,8 C 5,0 C 90 % 994,9 hPa 0,0 l/m 0 min 0 min 0 W/m 6,4 km/h (2 Bft) 100,00 %
17.11.2022 21:56 8,9 C 7,8 C 5,0 C 91 % 995,0 hPa 0,0 l/m 0 min 0 min 0 W/m 6,4 km/h (2 Bft) 100,00 %
17.11.2022 21:58 8,9 C 7,8 C 5,0 C 91 % 995,0 hPa 0,0 l/m 0 min 0 min 0 W/m 6,4 km/h (2 Bft) 100,00 %
17.11.2022 22:00 8,9 C 7,8 C 5,0 C 90 % 995,0 hPa 0,0 l/m 0 min 0 min 0 W/m 6,4 km/h (2 Bft) 100,00 %
17.11.2022 22:02 8,9 C 7,8 C 5,0 C 91 % 995,0 hPa 0,0 l/m 0 min 0 min 0 W/m 3,2 km/h (1 Bft) 100,00 %
17.11.2022 22:04 8,8 C 7,8 C 5,0 C 91 % 995,0 hPa 0,0 l/m 0 min 0 min 0 W/m 3,2 km/h (1 Bft) 100,00 %
17.11.2022 22:06 8,8 C 7,8 C 5,0 C 91 % 995,1 hPa 0,0 l/m 0 min 0 min 0 W/m 6,4 km/h (2 Bft) 52,38 %
17.11.2022 22:08 8,8 C 7,8 C 5,0 C 91 % 995,1 hPa 0,0 l/m 0 min 0 min 0 W/m 6,4 km/h (2 Bft) 100,00 %
17.11.2022 22:10 8,8 C 7,8 C 5,0 C 91 % 995,1 hPa 0,0 l/m 0 min 0 min 0 W/m 6,4 km/h (2 Bft) 100,00 %
17.11.2022 22:12 8,8 C 7,8 C 5,0 C 91 % 995,1 hPa 0,0 l/m 0 min 0 min 0 W/m 6,4 km/h (2 Bft) 100,00 %
17.11.2022 22:14 8,8 C 7,8 C 5,0 C 91 % 995,1 hPa 0,0 l/m 0 min 0 min 0 W/m 6,4 km/h (2 Bft) 97,87 %
17.11.2022 22:16 8,7 C 7,8 C 5,0 C 91 % 995,1 hPa 0,0 l/m 0 min 0 min 0 W/m 6,4 km/h (2 Bft) 97,83 %
17.11.2022 22:18 8,7 C 7,8 C 5,0 C 91 % 995,2 hPa 0,0 l/m 0 min 0 min 0 W/m 6,4 km/h (2 Bft) 100,00 %
17.11.2022 22:20 8,7 C 7,8 C 5,0 C 91 % 995,2 hPa 0,0 l/m 0 min 0 min 0 W/m 6,4 km/h (2 Bft) 100,00 %
17.11.2022 22:22 8,7 C 7,8 C 5,0 C 91 % 995,2 hPa 0,0 l/m 0 min 0 min 0 W/m 3,2 km/h (1 Bft) 100,00 %
17.11.2022 22:24 8,7 C 7,8 C 5,0 C 91 % 995,2 hPa 0,0 l/m 0 min 0 min 0 W/m 6,4 km/h (2 Bft) 100,00 %
17.11.2022 22:26 8,6 C 7,8 C 5,0 C 91 % 995,2 hPa 0,0 l/m 0 min 0 min 0 W/m 12,9 km/h (3 Bft) 100,00 %
17.11.2022 22:28 8,6 C 7,2 C 5,0 C 91 % 995,2 hPa 0,0 l/m 0 min 0 min 0 W/m 3,2 km/h (1 Bft) 97,83 %
17.11.2022 22:30 8,6 C 7,2 C 5,0 C 91 % 995,3 hPa 0,0 l/m 0 min 0 min 0 W/m 6,4 km/h (2 Bft) 100,00 %
17.11.2022 22:32 8,6 C 7,2 C 5,0 C 91 % 995,3 hPa 0,0 l/m 0 min 0 min 0 W/m 3,2 km/h (1 Bft) 97,87 %
17.11.2022 22:34 8,5 C 7,2 C 5,0 C 91 % 995,3 hPa 0,0 l/m 0 min 0 min 0 W/m 3,2 km/h (1 Bft) 97,87 %
17.11.2022 22:36 8,5 C 7,2 C 5,0 C 91 % 995,3 hPa 0,0 l/m 0 min 0 min 0 W/m 6,4 km/h (2 Bft) 97,87 %
17.11.2022 22:38 8,4 C 7,2 C 4,4 C 92 % 995,3 hPa 0,0 l/m 0 min 0 min 0 W/m 6,4 km/h (2 Bft) 97,87 %
17.11.2022 22:40 8,4 C 7,2 C 4,4 C 92 % 995,4 hPa 0,0 l/m 0 min 0 min 0 W/m 3,2 km/h (1 Bft) 100,00 %
17.11.2022 22:42 8,4 C 7,2 C 4,4 C 92 % 995,3 hPa 0,0 l/m 0 min 0 min 0 W/m 6,4 km/h (2 Bft) 100,00 %
17.11.2022 22:44 8,4 C 7,2 C 4,4 C 92 % 995,4 hPa 0,0 l/m 0 min 0 min 0 W/m 6,4 km/h (2 Bft) 95,74 %
17.11.2022 22:46 8,4 C 7,2 C 4,4 C 92 % 995,4 hPa 0,0 l/m 0 min 0 min 0 W/m 6,4 km/h (2 Bft) 97,87 %
17.11.2022 22:48 8,4 C 7,2 C 4,4 C 92 % 995,4 hPa 0,0 l/m 0 min 0 min 0 W/m 6,4 km/h (2 Bft) 97,87 %
17.11.2022 22:50 8,3 C 7,2 C 4,4 C 92 % 995,4 hPa 0,0 l/m 0 min 0 min 0 W/m 6,4 km/h (2 Bft) 97,87 %
17.11.2022 22:52 8,3 C 7,2 C 5,0 C 92 % 995,4 hPa 0,0 l/m 0 min 0 min 0 W/m 6,4 km/h (2 Bft) 95,65 %
17.11.2022 22:54 8,3 C 7,2 C 5,0 C 92 % 995,4 hPa 0,0 l/m 0 min 0 min 0 W/m 6,4 km/h (2 Bft) 97,87 %
17.11.2022 22:56 8,3 C 7,2 C 4,4 C 92 % 995,4 hPa 0,0 l/m 0 min 0 min 0 W/m 6,4 km/h (2 Bft) 93,62 %
17.11.2022 22:58 8,3 C 7,2 C 5,0 C 92 % 995,4 hPa 0,0 l/m 0 min 0 min 0 W/m 3,2 km/h (1 Bft) 97,87 %
17.11.2022 23:00 8,3 C 7,2 C 5,0 C 92 % 995,4 hPa 0,0 l/m 0 min 0 min 0 W/m 3,2 km/h (1 Bft) 97,14 %
17.11.2022 23:02 8,3 C 7,2 C 5,0 C 92 % 995,4 hPa 0,0 l/m 0 min 0 min 0 W/m 12,9 km/h (3 Bft) 98,00 %
17.11.2022 23:04 8,3 C 7,2 C 4,4 C 92 % 995,4 hPa 0,0 l/m 0 min 0 min 0 W/m 6,4 km/h (2 Bft) 97,87 %
17.11.2022 23:06 8,3 C 7,2 C 5,0 C 92 % 995,4 hPa 0,0 l/m 0 min 0 min 0 W/m 6,4 km/h (2 Bft) 95,65 %
17.11.2022 23:08 8,3 C 7,2 C 4,4 C 93 % 995,4 hPa 0,0 l/m 0 min 0 min 0 W/m 3,2 km/h (1 Bft) 97,87 %
17.11.2022 23:10 8,3 C 7,2 C 4,4 C 93 % 995,4 hPa 0,0 l/m 0 min 0 min 0 W/m 3,2 km/h (1 Bft) 97,87 %
17.11.2022 23:12 8,2 C 7,2 C 4,4 C 93 % 995,4 hPa 0,0 l/m 0 min 0 min 0 W/m 3,2 km/h (1 Bft) 97,87 %
17.11.2022 23:14 8,2 C 7,2 C 4,4 C 93 % 995,4 hPa 0,0 l/m 0 min 0 min 0 W/m 6,4 km/h (2 Bft) 100,00 %
17.11.2022 23:16 8,2 C 7,2 C 4,4 C 93 % 995,4 hPa 0,0 l/m 0 min 0 min 0 W/m 3,2 km/h (1 Bft) 100,00 %
17.11.2022 23:18 8,2 C 7,2 C 4,4 C 93 % 995,5 hPa 0,0 l/m 0 min 0 min 0 W/m 16,1 km/h (3 Bft) 100,00 %
17.11.2022 23:20 8,2 C 7,2 C 4,4 C 93 % 995,4 hPa 0,0 l/m 0 min 0 min 0 W/m 6,4 km/h (2 Bft) 100,00 %
17.11.2022 23:22 8,2 C 7,2 C 4,4 C 93 % 995,5 hPa 0,0 l/m 0 min 0 min 0 W/m 12,9 km/h (3 Bft) 100,00 %
17.11.2022 23:24 8,2 C 7,2 C 4,4 C 93 % 995,5 hPa 0,0 l/m 0 min 0 min 0 W/m 9,7 km/h (2 Bft) 97,87 %
17.11.2022 23:26 8,1 C 7,2 C 4,4 C 93 % 995,5 hPa 0,0 l/m 0 min 0 min 0 W/m 6,4 km/h (2 Bft) 100,00 %
17.11.2022 23:28 8,2 C 7,2 C 4,4 C 93 % 995,5 hPa 0,0 l/m 0 min 0 min 0 W/m 6,4 km/h (2 Bft) 100,00 %
17.11.2022 23:30 8,1 C 7,2 C 4,4 C 93 % 995,5 hPa 0,0 l/m 0 min 0 min 0 W/m 12,9 km/h (3 Bft) 97,83 %
17.11.2022 23:32 8,1 C 7,2 C 4,4 C 93 % 995,5 hPa 0,0 l/m 0 min 0 min 0 W/m 6,4 km/h (2 Bft) 97,87 %
17.11.2022 23:34 8,1 C 7,2 C 4,4 C 93 % 995,6 hPa 0,0 l/m 0 min 0 min 0 W/m 6,4 km/h (2 Bft) 97,87 %
17.11.2022 23:36 8,1 C 7,2 C 4,4 C 93 % 995,7 hPa 0,0 l/m 0 min 0 min 0 W/m 12,9 km/h (3 Bft) 97,87 %
17.11.2022 23:38 8,1 C 7,2 C 4,4 C 93 % 995,7 hPa 0,0 l/m 0 min 0 min 0 W/m 6,4 km/h (2 Bft) 97,87 %
17.11.2022 23:40 8,1 C 7,2 C 4,4 C 93 % 995,8 hPa 0,0 l/m 0 min 0 min 0 W/m 12,9 km/h (3 Bft) 95,74 %
17.11.2022 23:42 8,1 C 7,2 C 4,4 C 93 % 995,8 hPa 0,0 l/m 0 min 0 min 0 W/m 12,9 km/h (3 Bft) 97,83 %
17.11.2022 23:44 8,0 C 7,2 C 4,4 C 93 % 995,8 hPa 0,0 l/m 0 min 0 min 0 W/m 12,9 km/h (3 Bft) 93,62 %
17.11.2022 23:46 8,1 C 7,2 C 4,4 C 93 % 995,8 hPa 0,0 l/m 0 min 0 min 0 W/m 6,4 km/h (2 Bft) 98,21 %
17.11.2022 23:48 8,0 C 7,2 C 4,4 C 93 % 995,9 hPa 0,0 l/m 0 min 0 min 0 W/m 3,2 km/h (1 Bft) 97,87 %
17.11.2022 23:50 8,0 C 7,2 C 4,4 C 93 % 995,9 hPa 0,0 l/m 0 min 0 min 0 W/m 3,2 km/h (1 Bft) 97,87 %
17.11.2022 23:52 8,0 C 7,2 C 4,4 C 93 % 996,0 hPa 0,0 l/m 0 min 0 min 0 W/m 6,4 km/h (2 Bft) 95,65 %
17.11.2022 23:54 8,0 C 7,2 C 4,4 C 93 % 995,9 hPa 0,0 l/m 0 min 0 min 0 W/m 6,4 km/h (2 Bft) 93,62 %
17.11.2022 23:56 8,1 C 7,2 C 4,4 C 94 % 996,0 hPa 0,0 l/m 0 min 0 min 0 W/m 12,9 km/h (3 Bft) 97,87 %
17.11.2022 23:58 8,1 C 7,2 C 5,0 C 93 % 996,0 hPa 0,0 l/m 0 min 0 min 0 W/m 3,2 km/h (1 Bft) 93,62 %
_ Min-Zeit 23:44 22:28 22:38 14:02 06:32 - - - - 15:00 22:06
Minimum _ 8,0 C 7,2 C 4,4 C 78 % 987,0 hPa - - - - 3,2 km/h (1 Bft) 52,38 %
_ Max-Zeit 15:24 11:32 12:08 04:36 23:52 00:00 11:32 02:09 11:32 09:24 01:16
Maximum _ 12,3 C 11,7 C 8,3 C 97 % 996,0 hPa 0,2 l/m 2 min 5 min 174 W/m 54,7 km/h
SW (7 Bft)
100,00 %
Durchschnitt _ 10,6 C 9,7 C 6,7 C 89 % 990,9 hPa #7,4 l/m #4 min. #5:24 h 54 W/m 17,7 km/h (3 Bft) 97,08 %
© 2022 W. Hausmann